| time (UTC) | temp C | wind direction | speed KPH | gust KPH | rain 1hr cm | rain 24hr cm | rain mn cm | humidity % | barometer mb |
| 20260506165604 | 16 | 86 | 9.7 | 17.7 | 0.00 | 0.08 | 0.08 | 86 | 1011.0 |
| 20260506165504 | 16 | 89 | 9.7 | 19.3 | 0.00 | 0.08 | 0.08 | 86 | 1010.9 |
| 20260506165405 | 16 | 92 | 9.7 | 19.3 | 0.00 | 0.08 | 0.08 | 85 | 1011.0 |
| 20260506165305 | 16 | 93 | 9.7 | 19.3 | 0.00 | 0.08 | 0.08 | 86 | 1011.0 |
| 20260506165205 | 16 | 95 | 9.7 | 19.3 | 0.00 | 0.08 | 0.08 | 87 | 1011.0 |
| 20260506165005 | 16 | 92 | 9.7 | 19.3 | 0.03 | 0.08 | 0.08 | 88 | 1010.8 |
| 20260506164705 | 15 | 90 | 9.7 | 19.3 | 0.03 | 0.08 | 0.08 | 87 | 1011.0 |
| 20260506164604 | 15 | 90 | 9.7 | 19.3 | 0.03 | 0.08 | 0.08 | 89 | 1011.1 |
| 20260506164505 | 15 | 86 | 9.7 | 17.7 | 0.03 | 0.08 | 0.08 | 89 | 1011.1 |
| 20260506164404 | 15 | 82 | 8.0 | 16.1 | 0.03 | 0.08 | 0.08 | 89 | 1011.0 |
| 20260506164306 | 15 | 76 | 8.0 | 16.1 | 0.03 | 0.08 | 0.08 | 87 | 1010.9 |
| 20260506164204 | 15 | 70 | 8.0 | 16.1 | 0.03 | 0.08 | 0.08 | 87 | 1010.6 |
| 20260506164105 | 15 | 65 | 8.0 | 17.7 | 0.03 | 0.08 | 0.08 | 87 | 1010.6 |
| 20260506164004 | 15 | 63 | 8.0 | 17.7 | 0.03 | 0.08 | 0.08 | 88 | 1010.6 |
| 20260506163804 | 15 | 57 | 8.0 | 17.7 | 0.03 | 0.08 | 0.08 | 89 | 1010.8 |
| 20260506163705 | 15 | 58 | 8.0 | 17.7 | 0.03 | 0.08 | 0.08 | 89 | 1010.9 |
| 20260506163604 | 15 | 59 | 9.7 | 20.9 | 0.03 | 0.08 | 0.08 | 89 | 1011.0 |
| 20260506163504 | 15 | 60 | 9.7 | 22.5 | 0.03 | 0.08 | 0.08 | 89 | 1010.9 |
| 20260506163405 | 15 | 60 | 9.7 | 22.5 | 0.03 | 0.08 | 0.08 | 89 | 1010.9 |
| 20260506163204 | 15 | 64 | 12.9 | 22.5 | 0.03 | 0.08 | 0.08 | 88 | 1011.0 |
| 20260506163105 | 15 | 68 | 12.9 | 29.0 | 0.03 | 0.08 | 0.08 | 89 | 1011.0 |
| 20260506163005 | 15 | 70 | 14.5 | 29.0 | 0.03 | 0.08 | 0.08 | 89 | 1011.0 |
| 20260506162904 | 15 | 73 | 14.5 | 29.0 | 0.03 | 0.08 | 0.08 | 88 | 1011.0 |
| 20260506162805 | 15 | 76 | 14.5 | 29.0 | 0.03 | 0.08 | 0.08 | 91 | 1010.7 |
| 20260506162505 | 15 | 75 | 14.5 | 29.0 | 0.03 | 0.08 | 0.08 | 92 | 1010.2 |
| 20260506162405 | 15 | 74 | 16.1 | 29.0 | 0.03 | 0.08 | 0.08 | 91 | 1010.3 |
| 20260506162306 | 14 | 73 | 14.5 | 29.0 | 0.03 | 0.08 | 0.08 | 91 | 1010.5 |
| 20260506162204 | 14 | 71 | 14.5 | 29.0 | 0.03 | 0.08 | 0.08 | 91 | 1010.7 |
| 20260506162104 | 14 | 71 | 12.9 | 25.7 | 0.03 | 0.08 | 0.08 | 91 | 1010.7 |
| 20260506161804 | 13 | 72 | 12.9 | 24.1 | 0.03 | 0.08 | 0.08 | 90 | 1010.6 |
| 20260506161705 | 13 | 68 | 12.9 | 24.1 | 0.03 | 0.08 | 0.08 | 90 | 1010.4 |
| 20260506161505 | 13 | 62 | 11.3 | 24.1 | 0.03 | 0.08 | 0.08 | 90 | 1010.8 |
| 20260506161404 | 13 | 60 | 11.3 | 24.1 | 0.03 | 0.08 | 0.08 | 90 | 1011.3 |
| 20260506161306 | 13 | 60 | 11.3 | 24.1 | 0.03 | 0.08 | 0.08 | 90 | 1011.9 |
| 20260506161205 | 13 | 60 | 11.3 | 24.1 | 0.03 | 0.08 | 0.08 | 90 | 1012.1 |
| 20260506161004 | 13 | 51 | 11.3 | 24.1 | 0.03 | 0.08 | 0.08 | 91 | 1011.4 |
| 20260506160905 | 13 | 47 | 11.3 | 24.1 | 0.03 | 0.08 | 0.08 | 91 | 1010.9 |
| 20260506160806 | 13 | 45 | 11.3 | 24.1 | 0.03 | 0.08 | 0.08 | 91 | 1010.7 |
| 20260506160704 | 13 | 43 | 11.3 | 24.1 | 0.03 | 0.08 | 0.08 | 90 | 1010.8 |
| 20260506160605 | 13 | 43 | 11.3 | 24.1 | 0.03 | 0.08 | 0.08 | 90 | 1011.0 |
| 20260506160504 | 13 | 41 | 9.7 | 24.1 | 0.03 | 0.08 | 0.08 | 90 | 1011.1 |
| 20260506160405 | 13 | 38 | 9.7 | 19.3 | 0.03 | 0.08 | 0.08 | 90 | 1011.4 |
| 20260506160304 | 13 | 37 | 8.0 | 19.3 | 0.03 | 0.08 | 0.08 | 91 | 1011.7 |
| 20260506160205 | 13 | 34 | 8.0 | 19.3 | 0.03 | 0.08 | 0.08 | 91 | 1011.9 |
| 20260506160104 | 13 | 35 | 8.0 | 19.3 | 0.03 | 0.08 | 0.08 | 91 | 1012.1 |
| 20260506160005 | 13 | 37 | 8.0 | 19.3 | 0.03 | 0.08 | 0.08 | 91 | 1012.1 |
| 20260506155904 | 13 | 39 | 6.4 | 19.3 | 0.03 | 0.08 | 0.08 | 91 | 1012.1 |
| 20260506155704 | 13 | 42 | 8.0 | 19.3 | 0.03 | 0.08 | 0.08 | 91 | 1012.3 |
| 20260506155605 | 13 | 43 | 8.0 | 19.3 | 0.03 | 0.08 | 0.08 | 91 | 1012.5 |
| 20260506155504 | 13 | 44 | 8.0 | 20.9 | 0.03 | 0.08 | 0.08 | 91 | 1012.9 |
| 20260506155404 | 13 | 45 | 6.4 | 20.9 | 0.03 | 0.08 | 0.08 | 91 | 1013.2 |
| 20260506155306 | 13 | 42 | 8.0 | 20.9 | 0.03 | 0.08 | 0.08 | 91 | 1013.4 |
| 20260506155204 | 13 | 37 | 8.0 | 20.9 | 0.00 | 0.05 | 0.05 | 91 | 1013.4 |
| 20260506155105 | 13 | 31 | 8.0 | 20.9 | 0.00 | 0.05 | 0.05 | 91 | 1013.2 |
| 20260506155004 | 13 | 25 | 8.0 | 20.9 | 0.00 | 0.05 | 0.05 | 91 | 1012.9 |
| 20260506154905 | 13 | 22 | 8.0 | 20.9 | 0.00 | 0.05 | 0.05 | 91 | 1012.6 |
| 20260506154804 | 13 | 19 | 8.0 | 20.9 | 0.00 | 0.05 | 0.05 | 91 | 1012.5 |
| 20260506154505 | 13 | 14 | 6.4 | 17.7 | 0.00 | 0.05 | 0.05 | 91 | 1012.6 |
| 20260506154404 | 13 | 13 | 6.4 | 17.7 | 0.00 | 0.05 | 0.05 | 91 | 1013.0 |
| 20260506154305 | 13 | 9 | 6.4 | 17.7 | 0.00 | 0.05 | 0.05 | 91 | 1013.3 |
| 20260506154205 | 13 | 8 | 4.8 | 16.1 | 0.00 | 0.05 | 0.05 | 91 | 1013.7 |
| 20260506154104 | 13 | 6 | 6.4 | 20.9 | 0.00 | 0.05 | 0.05 | 91 | 1014.0 |
| 20260506153904 | 13 | 7 | 8.0 | 20.9 | 0.00 | 0.05 | 0.05 | 91 | 1014.0 |
| 20260506153704 | 13 | 7 | 9.7 | 20.9 | 0.00 | 0.05 | 0.05 | 91 | 1013.8 |
| 20260506153505 | 13 | 9 | 9.7 | 20.9 | 0.00 | 0.05 | 0.05 | 91 | 1013.6 |
| 20260506153404 | 13 | 8 | 9.7 | 20.9 | 0.00 | 0.05 | 0.05 | 91 | 1013.5 |
| 20260506153305 | 13 | 8 | 11.3 | 25.7 | 0.00 | 0.05 | 0.05 | 91 | 1013.5 |
| 20260506153204 | 13 | 7 | 11.3 | 25.7 | 0.00 | 0.05 | 0.05 | 91 | 1013.4 |
| 20260506153105 | 13 | 6 | 11.3 | 29.0 | 0.00 | 0.05 | 0.05 | 91 | 1013.4 |
| 20260506153004 | 13 | 3 | 12.9 | 29.0 | 0.00 | 0.05 | 0.05 | 92 | 1013.3 |
| 20260506152906 | 13 | 3 | 12.9 | 29.0 | 0.00 | 0.05 | 0.05 | 92 | 1013.2 |
| 20260506152805 | 13 | 3 | 12.9 | 29.0 | 0.00 | 0.05 | 0.05 | 92 | 1013.0 |
| 20260506152705 | 13 | 1 | 12.9 | 29.0 | 0.00 | 0.05 | 0.05 | 92 | 1012.8 |
| 20260506152505 | 13 | 357 | 14.5 | 29.0 | 0.00 | 0.05 | 0.05 | 91 | 1012.4 |
| 20260506152404 | 13 | 356 | 14.5 | 29.0 | 0.00 | 0.05 | 0.05 | 91 | 1012.3 |
| 20260506152205 | 13 | 356 | 12.9 | 29.0 | 0.00 | 0.05 | 0.05 | 92 | 1012.3 |
| 20260506152104 | 14 | 356 | 12.9 | 25.7 | 0.00 | 0.05 | 0.05 | 92 | 1012.5 |
| 20260506152004 | 14 | 358 | 12.9 | 24.1 | 0.00 | 0.05 | 0.05 | 92 | 1012.7 |
| 20260506151905 | 14 | 357 | 12.9 | 24.1 | 0.00 | 0.05 | 0.05 | 92 | 1012.7 |
| 20260506151804 | 14 | 357 | 12.9 | 27.4 | 0.00 | 0.05 | 0.05 | 91 | 1012.8 |
| 20260506151705 | 14 | 358 | 12.9 | 27.4 | 0.00 | 0.05 | 0.05 | 91 | 1012.7 |
| 20260506151305 | 14 | 4 | 12.9 | 27.4 | 0.00 | 0.05 | 0.05 | 91 | 1012.7 |
| 20260506151004 | 14 | 359 | 12.9 | 27.4 | 0.00 | 0.05 | 0.05 | 91 | 1012.9 |
| 20260506150904 | 14 | 2 | 12.9 | 32.2 | 0.00 | 0.05 | 0.05 | 91 | 1012.8 |
| 20260506150805 | 14 | 3 | 11.3 | 32.2 | 0.00 | 0.05 | 0.05 | 91 | 1012.6 |
| 20260506150605 | 14 | 3 | 12.9 | 32.2 | 0.00 | 0.05 | 0.05 | 91 | 1012.5 |
| 20260506150504 | 14 | 1 | 12.9 | 32.2 | 0.00 | 0.05 | 0.05 | 91 | 1012.5 |
| 20260506150305 | 14 | 357 | 14.5 | 32.2 | 0.00 | 0.05 | 0.05 | 91 | 1012.4 |
| 20260506150205 | 14 | 356 | 16.1 | 33.8 | 0.00 | 0.05 | 0.05 | 91 | 1012.4 |
| 20260506150104 | 14 | 355 | 16.1 | 33.8 | 0.00 | 0.05 | 0.05 | 91 | 1012.3 |
| 20260506150004 | 14 | 356 | 16.1 | 33.8 | 0.00 | 0.05 | 0.05 | 91 | 1012.5 |
| 20260506145804 | 15 | 356 | 17.7 | 33.8 | 0.00 | 0.05 | 0.05 | 91 | 1012.5 |
| 20260506145705 | 15 | 355 | 17.7 | 33.8 | 0.00 | 0.05 | 0.05 | 91 | 1012.5 |
| 20260506145604 | 15 | 354 | 17.7 | 33.8 | 0.00 | 0.05 | 0.05 | 91 | 1012.5 |
| 20260506145505 | 15 | 355 | 17.7 | 33.8 | 0.00 | 0.05 | 0.05 | 91 | 1012.4 |
| 20260506145406 | 15 | 355 | 16.1 | 33.8 | 0.00 | 0.05 | 0.05 | 91 | 1012.4 |
| 20260506145306 | 15 | 356 | 16.1 | 33.8 | 0.00 | 0.05 | 0.05 | 91 | 1012.4 |
| 20260506145104 | 15 | 358 | 16.1 | 32.2 | 0.00 | 0.05 | 0.05 | 91 | 1012.2 |
| 20260506145004 | 15 | 359 | 14.5 | 32.2 | 0.00 | 0.05 | 0.05 | 91 | 1012.1 |
| 20260506144905 | 15 | 359 | 14.5 | 32.2 | 0.00 | 0.05 | 0.05 | 91 | 1012.0 |
| 20260506144804 | 15 | 2 | 14.5 | 30.6 | 0.00 | 0.05 | 0.05 | 90 | 1011.8 |
| 20260506144705 | 15 | 5 | 14.5 | 27.4 | 0.00 | 0.05 | 0.05 | 90 | 1011.6 |
| 20260506144604 | 15 | 6 | 14.5 | 27.4 | 0.00 | 0.05 | 0.05 | 90 | 1011.5 |
| 20260506144504 | 15 | 7 | 12.9 | 27.4 | 0.00 | 0.05 | 0.05 | 90 | 1011.5 |
| 20260506144404 | 15 | 7 | 12.9 | 27.4 | 0.00 | 0.05 | 0.05 | 90 | 1011.5 |
| 20260506144305 | 15 | 8 | 12.9 | 27.4 | 0.00 | 0.05 | 0.05 | 90 | 1011.5 |
| 20260506144204 | 15 | 7 | 12.9 | 27.4 | 0.00 | 0.05 | 0.05 | 90 | 1011.4 |
| 20260506144105 | 15 | 7 | 12.9 | 27.4 | 0.00 | 0.05 | 0.05 | 90 | 1011.3 |
| 20260506143904 | 15 | 6 | 12.9 | 27.4 | 0.00 | 0.05 | 0.05 | 90 | 1011.2 |
| 20260506143805 | 15 | 4 | 12.9 | 27.4 | 0.00 | 0.05 | 0.05 | 90 | 1011.3 |
| 20260506143705 | 15 | 4 | 12.9 | 27.4 | 0.00 | 0.05 | 0.05 | 90 | 1011.3 |
| 20260506143604 | 15 | 1 | 12.9 | 27.4 | 0.00 | 0.05 | 0.05 | 90 | 1011.4 |
| 20260506143505 | 15 | 1 | 12.9 | 27.4 | 0.00 | 0.05 | 0.05 | 90 | 1011.5 |
| 20260506143404 | 15 | 2 | 12.9 | 27.4 | 0.00 | 0.05 | 0.05 | 90 | 1011.6 |
| 20260506143204 | 15 | 4 | 12.9 | 25.7 | 0.00 | 0.05 | 0.05 | 90 | 1011.8 |
| 20260506143104 | 15 | 5 | 12.9 | 25.7 | 0.00 | 0.05 | 0.05 | 90 | 1011.8 |
| 20260506143005 | 15 | 4 | 14.5 | 25.7 | 0.00 | 0.05 | 0.05 | 90 | 1011.7 |
| 20260506142904 | 15 | 6 | 14.5 | 25.7 | 0.00 | 0.05 | 0.05 | 90 | 1011.7 |
| 20260506142805 | 15 | 7 | 12.9 | 25.7 | 0.00 | 0.05 | 0.05 | 90 | 1011.5 |
| 20260506142705 | 15 | 7 | 14.5 | 25.7 | 0.00 | 0.05 | 0.05 | 90 | 1011.6 |
| 20260506142605 | 15 | 8 | 14.5 | 25.7 | 0.00 | 0.05 | 0.05 | 90 | 1011.6 |
| 20260506142504 | 15 | 8 | 12.9 | 25.7 | 0.00 | 0.05 | 0.05 | 90 | 1011.5 |
| 20260506142405 | 15 | 9 | 12.9 | 25.7 | 0.00 | 0.05 | 0.05 | 90 | 1011.5 |
| 20260506142306 | 15 | 8 | 12.9 | 25.7 | 0.00 | 0.05 | 0.05 | 90 | 1011.4 |
| 20260506142204 | 15 | 8 | 11.3 | 25.7 | 0.00 | 0.05 | 0.05 | 90 | 1011.3 |
| 20260506142104 | 15 | 10 | 11.3 | 25.7 | 0.00 | 0.05 | 0.05 | 90 | 1011.3 |
| 20260506142004 | 15 | 10 | 11.3 | 25.7 | 0.00 | 0.05 | 0.05 | 90 | 1011.3 |
| 20260506141705 | 16 | 8 | 11.3 | 25.7 | 0.00 | 0.05 | 0.05 | 90 | 1011.2 |
| 20260506141604 | 16 | 6 | 11.3 | 25.7 | 0.03 | 0.05 | 0.05 | 90 | 1011.2 |
| 20260506141504 | 16 | 5 | 12.9 | 24.1 | 0.03 | 0.05 | 0.05 | 90 | 1011.2 |
| 20260506141404 | 16 | 5 | 12.9 | 29.0 | 0.03 | 0.05 | 0.05 | 90 | 1011.2 |
| 20260506141304 | 16 | 4 | 12.9 | 29.0 | 0.03 | 0.05 | 0.05 | 90 | 1011.3 |
| 20260506141104 | 16 | 4 | 14.5 | 29.0 | 0.03 | 0.05 | 0.05 | 90 | 1011.4 |
| 20260506141004 | 16 | 3 | 14.5 | 29.0 | 0.03 | 0.05 | 0.05 | 90 | 1011.4 |
| 20260506140904 | 16 | 4 | 14.5 | 29.0 | 0.03 | 0.05 | 0.05 | 90 | 1011.5 |
| 20260506140804 | 16 | 4 | 14.5 | 29.0 | 0.03 | 0.05 | 0.05 | 90 | 1011.5 |
| 20260506140705 | 16 | 3 | 14.5 | 29.0 | 0.03 | 0.05 | 0.05 | 89 | 1011.6 |
| 20260506140505 | 16 | 5 | 12.9 | 29.0 | 0.03 | 0.05 | 0.05 | 89 | 1011.5 |
| 20260506140404 | 16 | 4 | 12.9 | 24.1 | 0.03 | 0.05 | 0.05 | 89 | 1011.5 |
| 20260506140304 | 16 | 4 | 12.9 | 24.1 | 0.03 | 0.05 | 0.05 | 89 | 1011.3 |
| 20260506140104 | 16 | 4 | 11.3 | 24.1 | 0.03 | 0.05 | 0.05 | 90 | 1011.2 |
| 20260506140005 | 16 | 6 | 9.7 | 24.1 | 0.03 | 0.05 | 0.05 | 90 | 1011.1 |
| 20260506135904 | 16 | 7 | 9.7 | 24.1 | 0.03 | 0.05 | 0.05 | 90 | 1011.0 |
| 20260506135604 | 16 | 9 | 9.7 | 20.9 | 0.03 | 0.05 | 0.05 | 90 | 1010.8 |
| 20260506135404 | 16 | 10 | 9.7 | 20.9 | 0.03 | 0.05 | 0.05 | 90 | 1010.6 |
| 20260506135306 | 16 | 9 | 9.7 | 20.9 | 0.03 | 0.05 | 0.05 | 90 | 1010.5 |
| 20260506135204 | 16 | 9 | 9.7 | 20.9 | 0.03 | 0.05 | 0.05 | 90 | 1010.4 |
| 20260506135105 | 16 | 10 | 9.7 | 20.9 | 0.03 | 0.05 | 0.05 | 90 | 1010.4 |
| 20260506135004 | 16 | 9 | 9.7 | 20.9 | 0.03 | 0.05 | 0.05 | 90 | 1010.3 |
| 20260506134905 | 16 | 9 | 9.7 | 20.9 | 0.03 | 0.05 | 0.05 | 90 | 1010.3 |
| 20260506134804 | 16 | 8 | 9.7 | 20.9 | 0.03 | 0.05 | 0.05 | 90 | 1010.3 |
| 20260506134704 | 16 | 8 | 9.7 | 20.9 | 0.03 | 0.05 | 0.05 | 89 | 1010.2 |
| 20260506134604 | 16 | 10 | 9.7 | 20.9 | 0.03 | 0.05 | 0.05 | 90 | 1010.2 |
| 20260506134505 | 16 | 10 | 9.7 | 22.5 | 0.03 | 0.05 | 0.05 | 90 | 1010.1 |
| 20260506134404 | 16 | 6 | 9.7 | 22.5 | 0.03 | 0.05 | 0.05 | 90 | 1010.1 |
| 20260506134305 | 16 | 6 | 11.3 | 22.5 | 0.03 | 0.05 | 0.05 | 90 | 1010.0 |
| 20260506134204 | 16 | 5 | 11.3 | 22.5 | 0.03 | 0.05 | 0.05 | 90 | 1010.0 |
| 20260506134105 | 16 | 5 | 11.3 | 22.5 | 0.03 | 0.05 | 0.05 | 90 | 1010.0 |
| 20260506133905 | 16 | 7 | 11.3 | 25.7 | 0.03 | 0.05 | 0.05 | 89 | 1010.1 |
| 20260506133804 | 16 | 7 | 11.3 | 25.7 | 0.03 | 0.05 | 0.05 | 89 | 1010.2 |
| 20260506133705 | 16 | 7 | 12.9 | 25.7 | 0.03 | 0.05 | 0.05 | 90 | 1010.2 |
| 20260506133605 | 16 | 5 | 12.9 | 27.4 | 0.03 | 0.05 | 0.05 | 90 | 1010.2 |
| 20260506133505 | 16 | 6 | 12.9 | 27.4 | 0.03 | 0.05 | 0.05 | 90 | 1010.3 |
| 20260506133405 | 16 | 7 | 12.9 | 27.4 | 0.03 | 0.05 | 0.05 | 90 | 1010.3 |
| 20260506133305 | 16 | 8 | 11.3 | 27.4 | 0.03 | 0.05 | 0.05 | 90 | 1010.2 |
| 20260506133204 | 16 | 8 | 11.3 | 27.4 | 0.03 | 0.05 | 0.05 | 90 | 1010.2 |
| 20260506133105 | 16 | 8 | 11.3 | 27.4 | 0.03 | 0.05 | 0.05 | 90 | 1010.1 |
| 20260506133004 | 16 | 6 | 11.3 | 27.4 | 0.03 | 0.05 | 0.05 | 89 | 1010.1 |
| 20260506132905 | 16 | 6 | 11.3 | 27.4 | 0.03 | 0.05 | 0.05 | 89 | 1010.1 |
| 20260506132804 | 16 | 6 | 11.3 | 27.4 | 0.03 | 0.05 | 0.05 | 89 | 1010.1 |
| 20260506132705 | 17 | 6 | 11.3 | 27.4 | 0.03 | 0.05 | 0.05 | 89 | 1010.4 |
| 20260506132604 | 17 | 8 | 9.7 | 22.5 | 0.03 | 0.05 | 0.05 | 89 | 1010.2 |
| 20260506132505 | 17 | 7 | 9.7 | 22.5 | 0.03 | 0.05 | 0.05 | 89 | 1010.2 |
| 20260506132404 | 17 | 8 | 9.7 | 22.5 | 0.03 | 0.05 | 0.05 | 89 | 1010.3 |
| 20260506132307 | 17 | 8 | 9.7 | 22.5 | 0.03 | 0.05 | 0.05 | 89 | 1010.3 |
| 20260506132204 | 17 | 7 | 9.7 | 22.5 | 0.03 | 0.05 | 0.05 | 89 | 1010.3 |
| 20260506132104 | 17 | 9 | 9.7 | 22.5 | 0.03 | 0.05 | 0.05 | 89 | 1010.3 |
| 20260506132005 | 17 | 12 | 9.7 | 22.5 | 0.03 | 0.05 | 0.05 | 89 | 1010.3 |
| 20260506131904 | 17 | 9 | 9.7 | 22.5 | 0.03 | 0.05 | 0.05 | 89 | 1010.2 |
| 20260506131804 | 17 | 9 | 9.7 | 22.5 | 0.03 | 0.05 | 0.05 | 89 | 1010.2 |
| 20260506131706 | 17 | 9 | 9.7 | 22.5 | 0.03 | 0.05 | 0.05 | 89 | 1010.2 |
| 20260506131604 | 17 | 9 | 11.3 | 22.5 | 0.00 | 0.03 | 0.03 | 89 | 1010.2 |
| 20260506131504 | 17 | 10 | 11.3 | 22.5 | 0.00 | 0.03 | 0.03 | 88 | 1010.2 |
| 20260506131404 | 17 | 9 | 11.3 | 22.5 | 0.00 | 0.03 | 0.03 | 89 | 1010.2 |
| 20260506131305 | 17 | 9 | 11.3 | 22.5 | 0.00 | 0.03 | 0.03 | 89 | 1010.1 |
| 20260506131204 | 17 | 9 | 11.3 | 22.5 | 0.00 | 0.03 | 0.03 | 89 | 1010.1 |
| 20260506131104 | 17 | 9 | 11.3 | 22.5 | 0.00 | 0.03 | 0.03 | 89 | 1010.1 |
| 20260506131004 | 17 | 6 | 11.3 | 22.5 | 0.00 | 0.03 | 0.03 | 89 | 1010.0 |
| 20260506130904 | 17 | 6 | 11.3 | 22.5 | 0.00 | 0.03 | 0.03 | 89 | 1010.0 |
| 20260506130804 | 17 | 5 | 11.3 | 22.5 | 0.00 | 0.03 | 0.03 | 89 | 1010.0 |
| 20260506130604 | 17 | 5 | 11.3 | 24.1 | 0.00 | 0.03 | 0.03 | 89 | 1009.8 |
| 20260506130504 | 17 | 4 | 11.3 | 24.1 | 0.00 | 0.03 | 0.03 | 89 | 1009.8 |
| 20260506130404 | 17 | 4 | 11.3 | 24.1 | 0.00 | 0.03 | 0.03 | 89 | 1009.8 |
| 20260506130104 | 17 | 5 | 11.3 | 24.1 | 0.00 | 0.03 | 0.03 | 89 | 1009.7 |
| 20260506125904 | 17 | 8 | 11.3 | 24.1 | 0.00 | 0.03 | 0.03 | 89 | 1009.7 |
| 20260506125805 | 17 | 10 | 11.3 | 24.1 | 0.00 | 0.03 | 0.03 | 89 | 1009.7 |
| 20260506125705 | 17 | 10 | 11.3 | 24.1 | 0.00 | 0.03 | 0.03 | 89 | 1009.7 |
| 20260506125504 | 17 | 10 | 11.3 | 22.5 | 0.00 | 0.03 | 0.03 | 89 | 1009.7 |
| 20260506125404 | 17 | 8 | 11.3 | 22.5 | 0.00 | 0.03 | 0.03 | 89 | 1009.6 |
| 20260506125306 | 17 | 9 | 11.3 | 22.5 | 0.00 | 0.03 | 0.03 | 89 | 1009.6 |
| 20260506125205 | 17 | 11 | 11.3 | 22.5 | 0.00 | 0.03 | 0.03 | 89 | 1009.5 |
| 20260506125104 | 17 | 11 | 9.7 | 22.5 | 0.00 | 0.03 | 0.03 | 89 | 1009.4 |
| 20260506125005 | 17 | 11 | 9.7 | 22.5 | 0.00 | 0.03 | 0.03 | 89 | 1009.4 |
| 20260506124904 | 17 | 10 | 9.7 | 22.5 | 0.00 | 0.03 | 0.03 | 90 | 1009.4 |
| 20260506124804 | 17 | 10 | 11.3 | 22.5 | 0.00 | 0.03 | 0.03 | 90 | 1009.4 |
| 20260506124704 | 17 | 9 | 11.3 | 22.5 | 0.00 | 0.03 | 0.03 | 90 | 1009.4 |
| 20260506124604 | 17 | 7 | 11.3 | 22.5 | 0.00 | 0.03 | 0.03 | 90 | 1009.4 |
| 20260506124505 | 17 | 8 | 11.3 | 22.5 | 0.00 | 0.03 | 0.03 | 90 | 1009.4 |
| 20260506124404 | 17 | 8 | 11.3 | 22.5 | 0.00 | 0.03 | 0.03 | 90 | 1009.4 |
| 20260506124305 | 17 | 6 | 9.7 | 19.3 | 0.00 | 0.03 | 0.03 | 90 | 1009.3 |
| 20260506124204 | 17 | 5 | 9.7 | 19.3 | 0.00 | 0.03 | 0.03 | 90 | 1009.3 |
| 20260506124105 | 17 | 4 | 9.7 | 19.3 | 0.00 | 0.03 | 0.03 | 90 | 1009.3 |
| 20260506124004 | 17 | 3 | 9.7 | 19.3 | 0.00 | 0.03 | 0.03 | 90 | 1009.4 |
| 20260506123904 | 17 | 2 | 9.7 | 19.3 | 0.00 | 0.03 | 0.03 | 90 | 1009.3 |
| 20260506123804 | 17 | 359 | 9.7 | 19.3 | 0.00 | 0.03 | 0.03 | 91 | 1009.3 |
| 20260506123704 | 17 | 359 | 9.7 | 19.3 | 0.00 | 0.03 | 0.03 | 91 | 1009.3 |
| 20260506123404 | 17 | 354 | 9.7 | 19.3 | 0.00 | 0.03 | 0.03 | 90 | 1009.3 |
| 20260506123304 | 17 | 353 | 9.7 | 19.3 | 0.00 | 0.03 | 0.03 | 90 | 1009.3 |
| 20260506123204 | 17 | 352 | 9.7 | 19.3 | 0.00 | 0.03 | 0.03 | 91 | 1009.3 |
| 20260506123104 | 17 | 351 | 9.7 | 19.3 | 0.00 | 0.03 | 0.03 | 91 | 1009.2 |
| 20260506123004 | 18 | 350 | 9.7 | 19.3 | 0.00 | 0.03 | 0.03 | 90 | 1009.2 |
| 20260506122904 | 18 | 350 | 9.7 | 19.3 | 0.00 | 0.03 | 0.03 | 91 | 1009.2 |
| 20260506122804 | 18 | 350 | 9.7 | 17.7 | 0.00 | 0.03 | 0.03 | 91 | 1009.2 |
| 20260506122604 | 18 | 352 | 9.7 | 19.3 | 0.00 | 0.03 | 0.03 | 91 | 1009.2 |
| 20260506122306 | 18 | 353 | 9.7 | 19.3 | 0.00 | 0.03 | 0.03 | 91 | 1009.2 |
| 20260506122204 | 18 | 351 | 9.7 | 19.3 | 0.00 | 0.03 | 0.03 | 91 | 1009.1 |
| 20260506122104 | 18 | 347 | 9.7 | 19.3 | 0.00 | 0.03 | 0.03 | 91 | 1009.0 |
| 20260506122004 | 18 | 346 | 9.7 | 19.3 | 0.00 | 0.03 | 0.03 | 91 | 1009.1 |
| 20260506121804 | 18 | 343 | 9.7 | 19.3 | 0.00 | 0.03 | 0.03 | 91 | 1009.0 |
| 20260506121704 | 18 | 339 | 9.7 | 19.3 | 0.00 | 0.03 | 0.03 | 91 | 1009.0 |
| 20260506121604 | 18 | 336 | 9.7 | 19.3 | 0.00 | 0.03 | 0.03 | 91 | 1009.0 |
| 20260506121505 | 18 | 336 | 9.7 | 19.3 | 0.00 | 0.03 | 0.03 | 91 | 1009.0 |
| 20260506121404 | 18 | 336 | 8.0 | 19.3 | 0.00 | 0.03 | 0.03 | 91 | 1008.9 |
| 20260506121305 | 18 | 335 | 8.0 | 19.3 | 0.00 | 0.03 | 0.03 | 91 | 1008.9 |
| 20260506121104 | 18 | 337 | 8.0 | 17.7 | 0.00 | 0.03 | 0.03 | 91 | 1008.8 |
| 20260506121004 | 18 | 337 | 8.0 | 17.7 | 0.00 | 0.03 | 0.03 | 91 | 1008.8 |
| 20260506120704 | 18 | 342 | 8.0 | 17.7 | 0.00 | 0.03 | 0.03 | 91 | 1008.8 |
| 20260506120603 | 18 | 344 | 8.0 | 17.7 | 0.00 | 0.03 | 0.03 | 91 | 1008.8 |
| 20260506120504 | 18 | 344 | 8.0 | 17.7 | 0.00 | 0.03 | 0.03 | 92 | 1008.8 |
| 20260506120404 | 18 | 347 | 8.0 | 16.1 | 0.00 | 0.03 | 0.03 | 92 | 1008.7 |
| 20260506120304 | 18 | 349 | 8.0 | 16.1 | 0.00 | 0.03 | 0.03 | 92 | 1008.7 |
| 20260506120204 | 18 | 350 | 8.0 | 16.1 | 0.00 | 0.03 | 0.03 | 92 | 1008.7 |
| 20260506120104 | 18 | 354 | 8.0 | 16.1 | 0.00 | 0.03 | 0.03 | 92 | 1008.7 |
| 20260506120006 | 18 | 356 | 8.0 | 16.1 | 0.00 | 0.03 | 0.03 | 92 | 1008.7 |
| 20260506115904 | 18 | 357 | 8.0 | 16.1 | 0.00 | 0.03 | 0.03 | 91 | 1008.6 |
| 20260506115804 | 18 | 2 | 8.0 | 14.5 | 0.00 | 0.03 | 0.03 | 91 | 1008.7 |
| 20260506115705 | 18 | 2 | 8.0 | 14.5 | 0.00 | 0.03 | 0.03 | 91 | 1008.6 |
| 20260506115505 | 18 | 3 | 8.0 | 14.5 | 0.00 | 0.03 | 0.03 | 91 | 1008.6 |
| 20260506115404 | 18 | 4 | 8.0 | 14.5 | 0.00 | 0.03 | 0.03 | 91 | 1008.6 |
| 20260506115307 | 18 | 5 | 8.0 | 14.5 | 0.00 | 0.03 | 0.03 | 91 | 1008.6 |
| 20260506115204 | 18 | 7 | 8.0 | 14.5 | 0.00 | 0.03 | 0.03 | 91 | 1008.5 |
| 20260506114905 | 19 | 7 | 8.0 | 17.7 | 0.00 | 0.03 | 0.03 | 91 | 1008.5 |
| 20260506114804 | 19 | 6 | 8.0 | 17.7 | 0.00 | 0.03 | 0.03 | 91 | 1008.5 |
| 20260506114705 | 19 | 6 | 8.0 | 17.7 | 0.00 | 0.03 | 0.03 | 91 | 1008.5 |
| 20260506114604 | 19 | 6 | 8.0 | 17.7 | 0.00 | 0.03 | 0.03 | 91 | 1008.5 |
| 20260506114504 | 19 | 4 | 9.7 | 19.3 | 0.00 | 0.03 | 0.03 | 91 | 1008.5 |
| 20260506114405 | 20 | 4 | 8.0 | 19.3 | 0.00 | 0.03 | 0.03 | 91 | 1008.6 |
| 20260506114304 | 20 | 359 | 9.7 | 19.3 | 0.00 | 0.03 | 0.03 | 91 | 1008.6 |
| 20260506114204 | 20 | 355 | 9.7 | 19.3 | 0.00 | 0.03 | 0.03 | 91 | 1008.6 |
| 20260506114105 | 20 | 351 | 8.0 | 19.3 | 0.00 | 0.03 | 0.03 | 91 | 1008.6 |
| 20260506114005 | 20 | 349 | 8.0 | 19.3 | 0.00 | 0.03 | 0.03 | 91 | 1008.6 |
| 20260506113907 | 20 | 344 | 8.0 | 19.3 | 0.00 | 0.03 | 0.03 | 91 | 1008.6 |
| 20260506113804 | 20 | 340 | 9.7 | 19.3 | 0.00 | 0.03 | 0.03 | 91 | 1008.5 |
| 20260506113704 | 20 | 337 | 9.7 | 19.3 | 0.00 | 0.03 | 0.03 | 91 | 1008.5 |
| 20260506113604 | 20 | 334 | 9.7 | 19.3 | 0.00 | 0.03 | 0.03 | 91 | 1008.5 |
| 20260506113504 | 20 | 331 | 8.0 | 17.7 | 0.00 | 0.03 | 0.03 | 91 | 1008.6 |
| 20260506113404 | 20 | 327 | 8.0 | 17.7 | 0.00 | 0.03 | 0.03 | 90 | 1008.5 |
| 20260506113306 | 21 | 327 | 6.4 | 17.7 | 0.00 | 0.03 | 0.03 | 90 | 1008.5 |
| 20260506113204 | 21 | 326 | 4.8 | 17.7 | 0.00 | 0.03 | 0.03 | 90 | 1008.5 |
| 20260506113104 | 21 | 326 | 4.8 | 17.7 | 0.00 | 0.03 | 0.03 | 90 | 1008.5 |
| 20260506113004 | 21 | 325 | 3.2 | 17.7 | 0.00 | 0.03 | 0.03 | 90 | 1008.6 |
| 20260506112904 | 22 | 328 | 3.2 | 17.7 | 0.00 | 0.03 | 0.03 | 91 | 1008.7 |
| 20260506112804 | 22 | 327 | 3.2 | 17.7 | 0.00 | 0.03 | 0.03 | 91 | 1008.6 |
| 20260506112704 | 22 | 324 | 0.0 | 12.9 | 0.00 | 0.03 | 0.03 | 93 | 1008.6 |
| 20260506112603 | 22 | 326 | 0.0 | 11.3 | 0.03 | 0.03 | 0.03 | 93 | 1008.5 |
| 20260506112405 | 22 | 0 | 0.0 | 0.0 | 0.03 | 0.03 | 0.03 | 93 | 1008.5 |
| 20260506112306 | 22 | 0 | 0.0 | 0.0 | 0.03 | 0.03 | 0.03 | 93 | 1008.5 |
| 20260506112104 | 22 | 0 | 0.0 | 0.0 | 0.03 | 0.03 | 0.03 | 93 | 1008.5 |
| 20260506112005 | 22 | 0 | 0.0 | 0.0 | 0.03 | 0.03 | 0.03 | 93 | 1008.5 |
| 20260506111904 | 22 | 0 | 0.0 | 0.0 | 0.03 | 0.03 | 0.03 | 93 | 1008.5 |
| 20260506111704 | 22 | 0 | 0.0 | 0.0 | 0.03 | 0.03 | 0.03 | 93 | 1008.5 |
| 20260506111604 | 22 | 0 | 0.0 | 0.0 | 0.03 | 0.03 | 0.03 | 93 | 1008.5 |
| 20260506111504 | 22 | 0 | 0.0 | 0.0 | 0.03 | 0.03 | 0.03 | 93 | 1008.5 |
| 20260506111404 | 22 | 0 | 0.0 | 0.0 | 0.03 | 0.03 | 0.03 | 93 | 1008.4 |
| 20260506111305 | 22 | 0 | 0.0 | 0.0 | 0.03 | 0.03 | 0.03 | 93 | 1008.4 |
| 20260506111204 | 22 | 0 | 0.0 | 0.0 | 0.03 | 0.03 | 0.03 | 93 | 1008.4 |
| 20260506111004 | 22 | 0 | 0.0 | 0.0 | 0.03 | 0.03 | 0.03 | 93 | 1008.4 |
| 20260506110905 | 22 | 0 | 0.0 | 0.0 | 0.03 | 0.03 | 0.03 | 93 | 1008.4 |
| 20260506110604 | 22 | 0 | 0.0 | 0.0 | 0.03 | 0.03 | 0.03 | 93 | 1008.4 |
| 20260506110504 | 22 | 0 | 0.0 | 0.0 | 0.03 | 0.03 | 0.03 | 93 | 1008.4 |
| 20260506110404 | 22 | 0 | 0.0 | 0.0 | 0.03 | 0.03 | 0.03 | 93 | 1008.3 |
| 20260506110304 | 22 | 0 | 0.0 | 0.0 | 0.03 | 0.03 | 0.03 | 93 | 1008.3 |
| 20260506110204 | 22 | 0 | 0.0 | 0.0 | 0.03 | 0.03 | 0.03 | 93 | 1008.3 |
| 20260506110104 | 22 | 0 | 0.0 | 0.0 | 0.03 | 0.03 | 0.03 | 93 | 1008.3 |
| 20260506105905 | 22 | 0 | 0.0 | 0.0 | 0.03 | 0.03 | 0.03 | 93 | 1008.3 |
| 20260506105804 | 22 | 0 | 0.0 | 0.0 | 0.03 | 0.03 | 0.03 | 92 | 1008.3 |
| 20260506105705 | 22 | 0 | 0.0 | 0.0 | 0.03 | 0.03 | 0.03 | 92 | 1008.3 |
| 20260506105604 | 22 | 0 | 0.0 | 0.0 | 0.03 | 0.03 | 0.03 | 92 | 1008.3 |
| 20260506105505 | 22 | 0 | 0.0 | 0.0 | 0.03 | 0.03 | 0.03 | 92 | 1008.3 |
| 20260506105404 | 22 | 0 | 0.0 | 0.0 | 0.03 | 0.03 | 0.03 | 92 | 1008.3 |
| 20260506105305 | 22 | 0 | 0.0 | 0.0 | 0.03 | 0.03 | 0.03 | 92 | 1008.3 |
| 20260506105204 | 22 | 0 | 0.0 | 0.0 | 0.03 | 0.03 | 0.03 | 92 | 1008.3 |
| 20260506105104 | 22 | 0 | 0.0 | 0.0 | 0.03 | 0.03 | 0.03 | 92 | 1008.2 |
| 20260506105004 | 22 | 0 | 0.0 | 0.0 | 0.03 | 0.03 | 0.03 | 92 | 1008.3 |
| 20260506104804 | 22 | 0 | 0.0 | 0.0 | 0.03 | 0.03 | 0.03 | 92 | 1008.3 |
| 20260506104704 | 22 | 0 | 0.0 | 0.0 | 0.03 | 0.03 | 0.03 | 92 | 1008.3 |
| 20260506104604 | 22 | 0 | 0.0 | 0.0 | 0.03 | 0.03 | 0.03 | 92 | 1008.3 |
| 20260506104504 | 22 | 0 | 0.0 | 0.0 | 0.03 | 0.03 | 0.03 | 92 | 1008.2 |
| 20260506104304 | 22 | 0 | 0.0 | 0.0 | 0.03 | 0.03 | 0.03 | 92 | 1008.2 |
| 20260506104205 | 22 | 0 | 0.0 | 0.0 | 0.03 | 0.03 | 0.03 | 92 | 1008.2 |
| 20260506104004 | 22 | 0 | 0.0 | 0.0 | 0.03 | 0.03 | 0.03 | 92 | 1008.1 |
| 20260506103704 | 22 | 0 | 0.0 | 0.0 | 0.03 | 0.03 | 0.03 | 92 | 1008.1 |
| 20260506103604 | 22 | 0 | 0.0 | 0.0 | 0.03 | 0.03 | 0.03 | 92 | 1008.1 |
| 20260506103504 | 22 | 0 | 0.0 | 0.0 | 0.03 | 0.03 | 0.03 | 92 | 1008.1 |
| 20260506103403 | 22 | 0 | 0.0 | 0.0 | 0.03 | 0.03 | 0.03 | 92 | 1008.1 |
| 20260506103304 | 22 | 0 | 0.0 | 0.0 | 0.03 | 0.03 | 0.03 | 92 | 1008.1 |
| 20260506103204 | 22 | 0 | 0.0 | 0.0 | 0.03 | 0.03 | 0.03 | 92 | 1008.1 |
| 20260506103104 | 22 | 0 | 0.0 | 0.0 | 0.03 | 0.03 | 0.03 | 92 | 1008.1 |
| 20260506103004 | 22 | 0 | 0.0 | 0.0 | 0.03 | 0.03 | 0.03 | 92 | 1008.0 |
| 20260506102904 | 22 | 0 | 0.0 | 0.0 | 0.03 | 0.03 | 0.03 | 92 | 1008.1 |
| 20260506102705 | 22 | 0 | 0.0 | 0.0 | 0.03 | 0.03 | 0.03 | 92 | 1008.1 |
| 20260506102604 | 22 | 0 | 0.0 | 0.0 | 0.00 | 0.00 | 0.00 | 92 | 1008.1 |
| 20260506102504 | 22 | 0 | 0.0 | 0.0 | 0.00 | 0.00 | 0.00 | 92 | 1008.0 |
| 20260506102403 | 22 | 0 | 0.0 | 0.0 | 0.00 | 0.00 | 0.00 | 92 | 1008.0 |
| 20260506102103 | 22 | 0 | 0.0 | 0.0 | 0.00 | 0.00 | 0.00 | 92 | 1007.9 |
| 20260506102004 | 22 | 0 | 0.0 | 0.0 | 0.00 | 0.00 | 0.00 | 92 | 1007.9 |
| 20260506101905 | 22 | 0 | 0.0 | 0.0 | 0.00 | 0.00 | 0.00 | 91 | 1007.9 |
| 20260506101804 | 22 | 0 | 0.0 | 0.0 | 0.00 | 0.00 | 0.00 | 91 | 1007.9 |
| 20260506101704 | 23 | 0 | 0.0 | 0.0 | 0.00 | 0.00 | 0.00 | 91 | 1007.9 |
| 20260506101604 | 23 | 0 | 0.0 | 0.0 | 0.00 | 0.00 | 0.00 | 91 | 1007.9 |
| 20260506101504 | 23 | 0 | 0.0 | 0.0 | 0.00 | 0.00 | 0.00 | 91 | 1008.0 |
| 20260506101404 | 23 | 0 | 0.0 | 0.0 | 0.00 | 0.00 | 0.00 | 91 | 1007.9 |
| 20260506101203 | 23 | 0 | 0.0 | 0.0 | 0.00 | 0.00 | 0.00 | 91 | 1008.0 |
| 20260506101104 | 23 | 0 | 0.0 | 0.0 | 0.00 | 0.00 | 0.00 | 91 | 1007.9 |
| 20260506101004 | 23 | 0 | 0.0 | 0.0 | 0.00 | 0.00 | 0.00 | 91 | 1007.9 |
| 20260506100904 | 23 | 0 | 0.0 | 0.0 | 0.00 | 0.00 | 0.00 | 91 | 1007.9 |
| 20260506100804 | 23 | 0 | 0.0 | 0.0 | 0.00 | 0.00 | 0.00 | 91 | 1007.9 |
| 20260506100705 | 23 | 0 | 0.0 | 0.0 | 0.00 | 0.00 | 0.00 | 91 | 1007.9 |
| 20260506100604 | 23 | 0 | 0.0 | 0.0 | 0.00 | 0.00 | 0.00 | 91 | 1007.9 |
| 20260506100404 | 23 | 0 | 0.0 | 0.0 | 0.00 | 0.00 | 0.00 | 91 | 1007.9 |
| 20260506100305 | 23 | 0 | 0.0 | 0.0 | 0.00 | 0.00 | 0.00 | 91 | 1007.9 |
| 20260506100204 | 23 | 0 | 0.0 | 0.0 | 0.00 | 0.00 | 0.00 | 91 | 1007.8 |
| 20260506100104 | 23 | 0 | 0.0 | 0.0 | 0.00 | 0.00 | 0.00 | 91 | 1007.8 |
| 20260506095904 | 23 | 0 | 0.0 | 0.0 | 0.00 | 0.00 | 0.00 | 91 | 1007.7 |
| 20260506095804 | 23 | 0 | 0.0 | 0.0 | 0.00 | 0.00 | 0.00 | 91 | 1007.7 |
| 20260506095705 | 23 | 0 | 0.0 | 0.0 | 0.00 | 0.00 | 0.00 | 90 | 1007.7 |
| 20260506095504 | 23 | 0 | 0.0 | 0.0 | 0.00 | 0.00 | 0.00 | 90 | 1007.6 |
| 20260506095404 | 23 | 0 | 0.0 | 0.0 | 0.00 | 0.00 | 0.00 | 90 | 1007.7 |
| 20260506095306 | 23 | 0 | 0.0 | 0.0 | 0.00 | 0.00 | 0.00 | 90 | 1007.7 |
| 20260506095204 | 23 | 178 | 0.0 | 3.2 | 0.00 | 0.00 | 0.00 | 90 | 1007.7 |
| 20260506095104 | 23 | 178 | 0.0 | 3.2 | 0.00 | 0.00 | 0.00 | 90 | 1007.7 |
| 20260506095004 | 23 | 178 | 0.0 | 3.2 | 0.00 | 0.00 | 0.00 | 90 | 1007.7 |
| 20260506094905 | 23 | 178 | 1.6 | 3.2 | 0.00 | 0.00 | 0.00 | 90 | 1007.6 |
| 20260506094804 | 23 | 178 | 1.6 | 4.8 | 0.00 | 0.00 | 0.00 | 90 | 1007.6 |
| 20260506094703 | 23 | 178 | 1.6 | 4.8 | 0.00 | 0.00 | 0.00 | 90 | 1007.6 |
| 20260506094604 | 23 | 178 | 1.6 | 6.4 | 0.00 | 0.00 | 0.00 | 90 | 1007.6 |
| 20260506094404 | 23 | 188 | 3.2 | 8.0 | 0.00 | 0.00 | 0.00 | 89 | 1007.6 |
| 20260506094304 | 23 | 190 | 3.2 | 8.0 | 0.00 | 0.00 | 0.00 | 89 | 1007.5 |
| 20260506094203 | 23 | 192 | 3.2 | 8.0 | 0.00 | 0.00 | 0.00 | 89 | 1007.5 |
| 20260506094104 | 23 | 193 | 3.2 | 8.0 | 0.00 | 0.00 | 0.00 | 89 | 1007.5 |
| 20260506093904 | 23 | 197 | 4.8 | 8.0 | 0.00 | 0.00 | 0.00 | 89 | 1007.5 |
| 20260506093705 | 23 | 201 | 4.8 | 8.0 | 0.00 | 0.00 | 0.00 | 89 | 1007.5 |
| 20260506093604 | 23 | 203 | 4.8 | 11.3 | 0.00 | 0.00 | 0.00 | 89 | 1007.6 |
| 20260506093504 | 23 | 203 | 4.8 | 11.3 | 0.00 | 0.00 | 0.00 | 88 | 1007.5 |
| 20260506093404 | 23 | 202 | 4.8 | 11.3 | 0.00 | 0.00 | 0.00 | 88 | 1007.6 |
| 20260506093304 | 23 | 202 | 4.8 | 11.3 | 0.00 | 0.00 | 0.00 | 88 | 1007.6 |
| 20260506093204 | 23 | 203 | 4.8 | 11.3 | 0.00 | 0.00 | 0.00 | 88 | 1007.6 |
| 20260506093104 | 23 | 203 | 4.8 | 11.3 | 0.00 | 0.00 | 0.00 | 88 | 1007.6 |
| 20260506093004 | 23 | 201 | 4.8 | 11.3 | 0.00 | 0.00 | 0.00 | 88 | 1007.6 |
| 20260506092904 | 23 | 197 | 4.8 | 11.3 | 0.00 | 0.00 | 0.00 | 88 | 1007.5 |
| 20260506092804 | 23 | 194 | 4.8 | 11.3 | 0.00 | 0.00 | 0.00 | 88 | 1007.5 |
| 20260506092704 | 23 | 190 | 4.8 | 11.3 | 0.00 | 0.00 | 0.00 | 88 | 1007.5 |
| 20260506092605 | 23 | 188 | 4.8 | 9.7 | 0.00 | 0.00 | 0.00 | 88 | 1007.5 |
| 20260506092504 | 23 | 186 | 4.8 | 9.7 | 0.00 | 0.00 | 0.00 | 88 | 1007.5 |
| 20260506092404 | 23 | 183 | 4.8 | 9.7 | 0.00 | 0.00 | 0.00 | 88 | 1007.5 |
| 20260506092306 | 23 | 178 | 4.8 | 9.7 | 0.00 | 0.00 | 0.00 | 88 | 1007.5 |
| 20260506092204 | 23 | 173 | 4.8 | 9.7 | 0.00 | 0.00 | 0.00 | 88 | 1007.4 |
| 20260506092104 | 23 | 168 | 4.8 | 9.7 | 0.00 | 0.00 | 0.00 | 87 | 1007.5 |
| 20260506092004 | 23 | 166 | 4.8 | 9.7 | 0.00 | 0.00 | 0.00 | 87 | 1007.5 |
| 20260506091904 | 23 | 165 | 3.2 | 9.7 | 0.00 | 0.00 | 0.00 | 87 | 1007.4 |
| 20260506091704 | 23 | 164 | 3.2 | 6.4 | 0.00 | 0.00 | 0.00 | 87 | 1007.4 |
| 20260506091604 | 23 | 161 | 3.2 | 6.4 | 0.00 | 0.00 | 0.00 | 87 | 1007.4 |
| 20260506091504 | 23 | 157 | 3.2 | 6.4 | 0.00 | 0.00 | 0.00 | 87 | 1007.4 |
| 20260506091204 | 23 | 156 | 1.6 | 6.4 | 0.00 | 0.00 | 0.00 | 87 | 1007.3 |
| 20260506091104 | 23 | 158 | 1.6 | 4.8 | 0.00 | 0.00 | 0.00 | 87 | 1007.3 |
| 20260506091004 | 23 | 157 | 1.6 | 4.8 | 0.00 | 0.00 | 0.00 | 87 | 1007.3 |
| 20260506090904 | 23 | 156 | 3.2 | 4.8 | 0.00 | 0.00 | 0.00 | 87 | 1007.3 |
| 20260506090704 | 23 | 156 | 3.2 | 6.4 | 0.00 | 0.00 | 0.00 | 87 | 1007.3 |
| 20260506090505 | 23 | 158 | 3.2 | 6.4 | 0.00 | 0.00 | 0.00 | 87 | 1007.2 |
| 20260506090404 | 23 | 160 | 4.8 | 6.4 | 0.00 | 0.00 | 0.00 | 87 | 1007.2 |
| 20260506090305 | 23 | 166 | 4.8 | 8.0 | 0.00 | 0.00 | 0.00 | 87 | 1007.3 |
| 20260506090104 | 23 | 171 | 4.8 | 9.7 | 0.00 | 0.00 | 0.00 | 87 | 1007.3 |
| 20260506090004 | 23 | 169 | 4.8 | 11.3 | 0.00 | 0.00 | 0.00 | 87 | 1007.3 |
| 20260506085904 | 23 | 171 | 4.8 | 11.3 | 0.00 | 0.00 | 0.00 | 87 | 1007.3 |
| 20260506085803 | 23 | 174 | 4.8 | 11.3 | 0.00 | 0.00 | 0.00 | 86 | 1007.3 |
| 20260506085704 | 23 | 177 | 4.8 | 11.3 | 0.00 | 0.00 | 0.00 | 86 | 1007.3 |
| 20260506085604 | 23 | 178 | 6.4 | 11.3 | 0.00 | 0.00 | 0.00 | 86 | 1007.3 |
| 20260506085504 | 23 | 181 | 6.4 | 11.3 | 0.00 | 0.00 | 0.00 | 86 | 1007.3 |
| 20260506085404 | 23 | 179 | 6.4 | 11.3 | 0.00 | 0.00 | 0.00 | 86 | 1007.3 |
| 20260506085204 | 23 | 176 | 6.4 | 12.9 | 0.00 | 0.00 | 0.00 | 86 | 1007.3 |
| 20260506085104 | 23 | 176 | 6.4 | 12.9 | 0.00 | 0.00 | 0.00 | 86 | 1007.2 |
| 20260506084904 | 23 | 183 | 6.4 | 12.9 | 0.00 | 0.00 | 0.00 | 86 | 1007.2 |
| 20260506084704 | 23 | 177 | 6.4 | 12.9 | 0.00 | 0.00 | 0.00 | 86 | 1007.2 |
| 20260506084604 | 23 | 176 | 6.4 | 12.9 | 0.00 | 0.00 | 0.00 | 86 | 1007.2 |
| 20260506084504 | 23 | 175 | 6.4 | 12.9 | 0.00 | 0.00 | 0.00 | 86 | 1007.2 |
| 20260506084404 | 23 | 175 | 6.4 | 12.9 | 0.00 | 0.00 | 0.00 | 86 | 1007.2 |
| 20260506084304 | 23 | 176 | 6.4 | 14.5 | 0.00 | 0.00 | 0.00 | 86 | 1007.2 |
| 20260506084204 | 23 | 176 | 8.0 | 14.5 | 0.00 | 0.00 | 0.00 | 86 | 1007.3 |
| 20260506084104 | 23 | 176 | 8.0 | 16.1 | 0.00 | 0.00 | 0.00 | 86 | 1007.3 |
| 20260506083904 | 23 | 174 | 8.0 | 16.1 | 0.00 | 0.00 | 0.00 | 86 | 1007.2 |
| 20260506083703 | 23 | 175 | 9.7 | 16.1 | 0.00 | 0.00 | 0.00 | 86 | 1007.3 |
| 20260506083604 | 23 | 175 | 9.7 | 16.1 | 0.00 | 0.00 | 0.00 | 86 | 1007.3 |
| 20260506083505 | 23 | 176 | 9.7 | 16.1 | 0.00 | 0.00 | 0.00 | 86 | 1007.2 |
| 20260506083404 | 23 | 175 | 9.7 | 19.3 | 0.00 | 0.00 | 0.00 | 86 | 1007.3 |
| 20260506083104 | 23 | 176 | 11.3 | 19.3 | 0.00 | 0.00 | 0.00 | 86 | 1007.1 |
| 20260506083004 | 23 | 177 | 11.3 | 19.3 | 0.00 | 0.00 | 0.00 | 86 | 1007.1 |
| 20260506082905 | 23 | 178 | 11.3 | 19.3 | 0.00 | 0.00 | 0.00 | 86 | 1007.2 |
| 20260506082804 | 23 | 178 | 11.3 | 19.3 | 0.00 | 0.00 | 0.00 | 86 | 1007.2 |
| 20260506082705 | 23 | 179 | 11.3 | 19.3 | 0.00 | 0.00 | 0.00 | 86 | 1007.2 |
| 20260506082603 | 23 | 181 | 11.3 | 19.3 | 0.00 | 0.00 | 0.00 | 86 | 1007.3 |
| 20260506082404 | 23 | 183 | 11.3 | 19.3 | 0.00 | 0.00 | 0.00 | 86 | 1007.2 |
| 20260506082305 | 23 | 183 | 11.3 | 20.9 | 0.00 | 0.00 | 0.00 | 86 | 1007.2 |
| 20260506082204 | 23 | 184 | 11.3 | 20.9 | 0.00 | 0.00 | 0.00 | 86 | 1007.1 |
| 20260506082104 | 23 | 185 | 11.3 | 20.9 | 0.00 | 0.00 | 0.00 | 86 | 1007.1 |
| 20260506082004 | 23 | 184 | 11.3 | 20.9 | 0.00 | 0.00 | 0.00 | 86 | 1007.1 |
| 20260506081904 | 23 | 184 | 11.3 | 20.9 | 0.00 | 0.00 | 0.00 | 85 | 1007.1 |
| 20260506081804 | 23 | 184 | 11.3 | 20.9 | 0.00 | 0.00 | 0.00 | 85 | 1007.0 |
| 20260506081704 | 23 | 187 | 11.3 | 20.9 | 0.00 | 0.00 | 0.00 | 85 | 1007.1 |
| 20260506081604 | 23 | 188 | 11.3 | 20.9 | 0.00 | 0.00 | 0.00 | 85 | 1007.0 |
| 20260506081404 | 23 | 189 | 11.3 | 20.9 | 0.00 | 0.00 | 0.00 | 85 | 1007.0 |
| 20260506081204 | 23 | 192 | 9.7 | 19.3 | 0.00 | 0.00 | 0.00 | 85 | 1007.0 |
| 20260506081104 | 23 | 191 | 9.7 | 19.3 | 0.00 | 0.00 | 0.00 | 85 | 1007.0 |
| 20260506080904 | 23 | 195 | 9.7 | 19.3 | 0.00 | 0.00 | 0.00 | 85 | 1007.0 |
| 20260506080804 | 23 | 195 | 9.7 | 19.3 | 0.00 | 0.00 | 0.00 | 85 | 1007.1 |
| 20260506080704 | 23 | 194 | 9.7 | 17.7 | 0.00 | 0.00 | 0.00 | 85 | 1007.1 |
| 20260506080603 | 23 | 194 | 9.7 | 17.7 | 0.00 | 0.00 | 0.00 | 85 | 1007.1 |
| 20260506080504 | 23 | 193 | 9.7 | 17.7 | 0.00 | 0.00 | 0.00 | 85 | 1007.1 |
| 20260506080404 | 23 | 193 | 9.7 | 17.7 | 0.00 | 0.00 | 0.00 | 85 | 1007.2 |
| 20260506080304 | 23 | 191 | 9.7 | 17.7 | 0.00 | 0.00 | 0.00 | 85 | 1007.2 |
| 20260506080203 | 23 | 190 | 9.7 | 17.7 | 0.00 | 0.00 | 0.00 | 85 | 1007.2 |
| 20260506080104 | 23 | 189 | 9.7 | 17.7 | 0.00 | 0.00 | 0.00 | 85 | 1007.2 |
| 20260506073504 | 24 | 184 | 9.7 | 22.5 | 0.00 | 0.00 | 0.00 | 85 | 1007.4 |
| 20260506073404 | 24 | 185 | 9.7 | 22.5 | 0.00 | 0.00 | 0.00 | 85 | 1007.4 |
| 20260506073304 | 24 | 187 | 9.7 | 17.7 | 0.00 | 0.00 | 0.00 | 85 | 1007.4 |
| 20260506073204 | 24 | 190 | 9.7 | 17.7 | 0.00 | 0.00 | 0.00 | 85 | 1007.4 |
| 20260506073103 | 24 | 191 | 9.7 | 17.7 | 0.00 | 0.00 | 0.00 | 85 | 1007.5 |
| 20260506073004 | 24 | 190 | 8.0 | 17.7 | 0.00 | 0.00 | 0.00 | 85 | 1007.5 |
| 20260506072903 | 24 | 192 | 8.0 | 17.7 | 0.00 | 0.00 | 0.00 | 85 | 1007.5 |
| 20260506072804 | 24 | 192 | 8.0 | 17.7 | 0.00 | 0.00 | 0.00 | 85 | 1007.5 |
| 20260506072704 | 24 | 190 | 8.0 | 17.7 | 0.00 | 0.00 | 0.00 | 85 | 1007.5 |
| 20260506072604 | 24 | 188 | 6.4 | 17.7 | 0.00 | 0.00 | 0.00 | 85 | 1007.5 |
| 20260506072504 | 24 | 187 | 6.4 | 16.1 | 0.00 | 0.00 | 0.00 | 86 | 1007.5 |
| 20260506072203 | 23 | 178 | 4.8 | 14.5 | 0.00 | 0.00 | 0.00 | 86 | 1007.6 |
| 20260506072104 | 23 | 172 | 4.8 | 14.5 | 0.00 | 0.00 | 0.00 | 86 | 1007.6 |
| 20260506072003 | 23 | 168 | 3.2 | 14.5 | 0.00 | 0.00 | 0.00 | 86 | 1007.5 |
| 20260506071904 | 23 | 162 | 4.8 | 9.7 | 0.00 | 0.00 | 0.00 | 86 | 1007.6 |
| 20260506071803 | 23 | 160 | 4.8 | 11.3 | 0.00 | 0.00 | 0.00 | 86 | 1007.6 |
| 20260506071704 | 23 | 162 | 4.8 | 11.3 | 0.00 | 0.00 | 0.00 | 86 | 1007.6 |
| 20260506071604 | 23 | 163 | 4.8 | 11.3 | 0.00 | 0.00 | 0.00 | 86 | 1007.6 |
| 20260506071504 | 24 | 163 | 4.8 | 12.9 | 0.00 | 0.00 | 0.00 | 86 | 1007.6 |
| 20260506071403 | 24 | 164 | 4.8 | 12.9 | 0.00 | 0.00 | 0.00 | 86 | 1007.6 |
| 20260506071204 | 24 | 166 | 6.4 | 12.9 | 0.00 | 0.00 | 0.00 | 86 | 1007.6 |
| 20260506071104 | 23 | 168 | 6.4 | 12.9 | 0.00 | 0.00 | 0.00 | 86 | 1007.6 |
| 20260506071004 | 24 | 169 | 6.4 | 12.9 | 0.00 | 0.00 | 0.00 | 86 | 1007.6 |
| 20260506070903 | 23 | 170 | 6.4 | 12.9 | 0.00 | 0.00 | 0.00 | 86 | 1007.6 |
| 20260506070804 | 24 | 171 | 6.4 | 12.9 | 0.00 | 0.00 | 0.00 | 86 | 1007.6 |
| 20260506070704 | 24 | 170 | 6.4 | 12.9 | 0.00 | 0.00 | 0.00 | 86 | 1007.6 |
| 20260506070604 | 24 | 170 | 6.4 | 12.9 | 0.00 | 0.00 | 0.00 | 86 | 1007.6 |
| 20260506070504 | 23 | 169 | 6.4 | 12.9 | 0.00 | 0.00 | 0.00 | 86 | 1007.6 |
| 20260506070404 | 24 | 169 | 6.4 | 12.9 | 0.00 | 0.00 | 0.00 | 86 | 1007.6 |
| 20260506070303 | 24 | 169 | 6.4 | 12.9 | 0.00 | 0.00 | 0.00 | 86 | 1007.6 |
| 20260506070204 | 24 | 171 | 6.4 | 12.9 | 0.00 | 0.00 | 0.00 | 86 | 1007.6 |
| 20260506070104 | 24 | 170 | 6.4 | 12.9 | 0.00 | 0.00 | 0.00 | 86 | 1007.6 |
| 20260506062504 | 24 | 190 | 12.9 | 22.5 | 0.00 | 0.00 | 0.00 | 86 | 1007.2 |
| 20260506062403 | 24 | 190 | 12.9 | 22.5 | 0.00 | 0.00 | 0.00 | 86 | 1007.2 |
| 20260506062305 | 24 | 188 | 12.9 | 22.5 | 0.00 | 0.00 | 0.00 | 86 | 1007.2 |
| 20260506062204 | 24 | 187 | 12.9 | 22.5 | 0.00 | 0.00 | 0.00 | 86 | 1007.2 |
| 20260506062103 | 24 | 186 | 12.9 | 22.5 | 0.00 | 0.00 | 0.00 | 86 | 1007.2 |
| 20260506062004 | 24 | 185 | 12.9 | 22.5 | 0.00 | 0.00 | 0.00 | 86 | 1007.2 |
| 20260506061803 | 24 | 179 | 12.9 | 22.5 | 0.00 | 0.00 | 0.00 | 86 | 1007.2 |
| 20260506061704 | 24 | 178 | 12.9 | 22.5 | 0.00 | 0.00 | 0.00 | 86 | 1007.3 |
| 20260506061504 | 24 | 178 | 11.3 | 22.5 | 0.00 | 0.00 | 0.00 | 86 | 1007.3 |
| 20260506061403 | 24 | 178 | 11.3 | 20.9 | 0.00 | 0.00 | 0.00 | 86 | 1007.3 |
| 20260506061303 | 24 | 177 | 11.3 | 20.9 | 0.00 | 0.00 | 0.00 | 86 | 1007.4 |
| 20260506061204 | 24 | 178 | 11.3 | 19.3 | 0.00 | 0.00 | 0.00 | 86 | 1007.4 |
| 20260506061103 | 23 | 176 | 9.7 | 19.3 | 0.00 | 0.00 | 0.00 | 86 | 1007.4 |
| 20260506061004 | 23 | 175 | 9.7 | 19.3 | 0.00 | 0.00 | 0.00 | 86 | 1007.5 |
| 20260506060904 | 23 | 175 | 9.7 | 19.3 | 0.00 | 0.00 | 0.00 | 86 | 1007.4 |
| 20260506060804 | 23 | 177 | 9.7 | 19.3 | 0.00 | 0.00 | 0.00 | 87 | 1007.4 |
| 20260506060703 | 23 | 179 | 9.7 | 19.3 | 0.00 | 0.00 | 0.00 | 87 | 1007.4 |
| 20260506060604 | 23 | 179 | 11.3 | 19.3 | 0.00 | 0.00 | 0.00 | 87 | 1007.3 |
| 20260506060504 | 23 | 175 | 11.3 | 22.5 | 0.00 | 0.00 | 0.00 | 87 | 1007.3 |
| 20260506060404 | 23 | 175 | 11.3 | 22.5 | 0.00 | 0.00 | 0.00 | 87 | 1007.1 |
| 20260506060304 | 23 | 175 | 11.3 | 22.5 | 0.00 | 0.00 | 0.00 | 87 | 1007.1 |
| 20260506060104 | 23 | 176 | 11.3 | 22.5 | 0.00 | 0.00 | 0.00 | 87 | 1006.9 |
| 20260506051403 | 23 | 156 | 9.7 | 19.3 | 0.00 | 0.00 | 0.00 | 88 | 1006.8 |
| 20260506051204 | 23 | 156 | 9.7 | 19.3 | 0.00 | 0.00 | 0.00 | 88 | 1006.8 |
| 20260506051103 | 23 | 156 | 9.7 | 19.3 | 0.00 | 0.00 | 0.00 | 88 | 1006.9 |
| 20260506051004 | 23 | 157 | 9.7 | 19.3 | 0.00 | 0.00 | 0.00 | 88 | 1006.8 |
| 20260506050903 | 23 | 158 | 9.7 | 17.7 | 0.00 | 0.00 | 0.00 | 88 | 1006.9 |
| 20260506050804 | 23 | 157 | 9.7 | 17.7 | 0.00 | 0.00 | 0.00 | 87 | 1006.8 |
| 20260506050703 | 23 | 157 | 9.7 | 17.7 | 0.00 | 0.00 | 0.00 | 87 | 1006.8 |
| 20260506050604 | 23 | 156 | 9.7 | 17.7 | 0.00 | 0.00 | 0.00 | 87 | 1006.7 |
| 20260506050503 | 23 | 156 | 9.7 | 19.3 | 0.00 | 0.00 | 0.00 | 87 | 1006.8 |
| 20260506050404 | 23 | 156 | 9.7 | 19.3 | 0.00 | 0.00 | 0.00 | 87 | 1006.7 |
| 20260506050203 | 23 | 157 | 9.7 | 19.3 | 0.00 | 0.00 | 0.00 | 87 | 1006.7 |
| 20260506050103 | 23 | 158 | 9.7 | 19.3 | 0.00 | 0.00 | 0.00 | 87 | 1006.8 |
| 20260506045103 | 23 | 163 | 12.9 | 20.9 | 0.00 | 0.00 | 0.00 | 87 | 1006.7 |
| 20260506045004 | 23 | 160 | 11.3 | 20.9 | 0.00 | 0.00 | 0.00 | 87 | 1006.7 |
| 20260506044903 | 23 | 160 | 11.3 | 20.9 | 0.00 | 0.00 | 0.00 | 87 | 1006.7 |
| 20260506044804 | 23 | 160 | 11.3 | 20.9 | 0.00 | 0.00 | 0.00 | 87 | 1006.7 |
| 20260506044703 | 23 | 159 | 11.3 | 20.9 | 0.00 | 0.00 | 0.00 | 87 | 1006.7 |
| 20260506044604 | 23 | 159 | 11.3 | 19.3 | 0.00 | 0.00 | 0.00 | 87 | 1006.6 |
| 20260506044404 | 23 | 158 | 11.3 | 19.3 | 0.00 | 0.00 | 0.00 | 87 | 1006.6 |
| 20260506044304 | 23 | 158 | 11.3 | 19.3 | 0.00 | 0.00 | 0.00 | 87 | 1006.6 |
| 20260506044204 | 23 | 158 | 11.3 | 19.3 | 0.00 | 0.00 | 0.00 | 87 | 1006.6 |
| 20260506044103 | 23 | 159 | 11.3 | 19.3 | 0.00 | 0.00 | 0.00 | 87 | 1006.6 |
| 20260506044003 | 23 | 159 | 11.3 | 19.3 | 0.00 | 0.00 | 0.00 | 87 | 1006.6 |
| 20260506043803 | 23 | 157 | 11.3 | 19.3 | 0.00 | 0.00 | 0.00 | 86 | 1006.6 |
| 20260506043704 | 23 | 157 | 11.3 | 19.3 | 0.00 | 0.00 | 0.00 | 86 | 1006.6 |
| 20260506043603 | 23 | 156 | 11.3 | 19.3 | 0.00 | 0.00 | 0.00 | 86 | 1006.6 |
| 20260506043404 | 23 | 156 | 11.3 | 19.3 | 0.00 | 0.00 | 0.00 | 86 | 1006.6 |
| 20260506043303 | 23 | 157 | 11.3 | 19.3 | 0.00 | 0.00 | 0.00 | 86 | 1006.6 |
| 20260506043204 | 23 | 158 | 11.3 | 19.3 | 0.00 | 0.00 | 0.00 | 86 | 1006.7 |
| 20260506043103 | 23 | 156 | 11.3 | 19.3 | 0.00 | 0.00 | 0.00 | 86 | 1006.7 |
| 20260506043004 | 23 | 156 | 9.7 | 19.3 | 0.00 | 0.00 | 0.00 | 86 | 1006.7 |
| 20260506042903 | 23 | 156 | 9.7 | 19.3 | 0.00 | 0.00 | 0.00 | 86 | 1006.7 |
| 20260506042805 | 23 | 157 | 9.7 | 17.7 | 0.00 | 0.00 | 0.00 | 86 | 1006.7 |
| 20260506042703 | 23 | 158 | 9.7 | 17.7 | 0.00 | 0.00 | 0.00 | 86 | 1006.7 |
| 20260506042604 | 23 | 158 | 9.7 | 17.7 | 0.00 | 0.00 | 0.00 | 86 | 1006.7 |
| 20260506042504 | 23 | 158 | 9.7 | 17.7 | 0.00 | 0.00 | 0.00 | 86 | 1006.8 |
| 20260506042404 | 23 | 158 | 9.7 | 17.7 | 0.00 | 0.00 | 0.00 | 86 | 1006.8 |
| 20260506042305 | 23 | 159 | 9.7 | 17.7 | 0.00 | 0.00 | 0.00 | 86 | 1006.8 |
| 20260506042203 | 24 | 158 | 9.7 | 17.7 | 0.00 | 0.00 | 0.00 | 86 | 1006.7 |
| 20260506042103 | 24 | 158 | 9.7 | 17.7 | 0.00 | 0.00 | 0.00 | 86 | 1006.8 |
| 20260506042006 | 23 | 158 | 9.7 | 19.3 | 0.00 | 0.00 | 0.00 | 86 | 1006.7 |
| 20260506041906 | 24 | 159 | 9.7 | 19.3 | 0.00 | 0.00 | 0.00 | 86 | 1006.8 |
| 20260506041805 | 24 | 160 | 11.3 | 19.3 | 0.00 | 0.00 | 0.00 | 86 | 1006.8 |
| 20260506041606 | 24 | 160 | 9.7 | 19.3 | 0.00 | 0.00 | 0.00 | 85 | 1006.8 |
| 20260506041506 | 24 | 160 | 9.7 | 19.3 | 0.00 | 0.00 | 0.00 | 85 | 1006.7 |
| 20260506041405 | 24 | 160 | 11.3 | 19.3 | 0.00 | 0.00 | 0.00 | 85 | 1006.7 |
| 20260506041306 | 24 | 160 | 11.3 | 19.3 | 0.00 | 0.00 | 0.00 | 85 | 1006.7 |
| 20260506041205 | 24 | 160 | 11.3 | 19.3 | 0.00 | 0.00 | 0.00 | 85 | 1006.7 |
| 20260506041106 | 24 | 162 | 9.7 | 19.3 | 0.00 | 0.00 | 0.00 | 85 | 1006.7 |
| 20260506041006 | 24 | 164 | 9.7 | 19.3 | 0.00 | 0.00 | 0.00 | 85 | 1006.7 |
| 20260506040906 | 24 | 164 | 9.7 | 19.3 | 0.00 | 0.00 | 0.00 | 85 | 1006.7 |
| 20260506040606 | 24 | 163 | 9.7 | 19.3 | 0.00 | 0.00 | 0.00 | 85 | 1006.7 |
| 20260506040506 | 24 | 163 | 9.7 | 19.3 | 0.00 | 0.00 | 0.00 | 85 | 1006.7 |
| 20260506040406 | 24 | 163 | 9.7 | 19.3 | 0.00 | 0.00 | 0.00 | 85 | 1006.6 |
| 20260506040305 | 24 | 163 | 9.7 | 17.7 | 0.00 | 0.00 | 0.00 | 85 | 1006.6 |
| 20260506040206 | 24 | 163 | 9.7 | 17.7 | 0.00 | 0.00 | 0.00 | 85 | 1006.6 |
| 20260506040106 | 24 | 162 | 9.7 | 17.7 | 0.00 | 0.00 | 0.00 | 85 | 1006.6 |
| 20260506040006 | 24 | 162 | 9.7 | 20.9 | 0.00 | 0.00 | 0.00 | 85 | 1006.6 |
| 20260506035806 | 24 | 161 | 11.3 | 20.9 | 0.00 | 0.00 | 0.00 | 85 | 1006.5 |
| 20260506035706 | 24 | 160 | 9.7 | 20.9 | 0.00 | 0.00 | 0.00 | 84 | 1006.5 |
| 20260506035606 | 24 | 159 | 11.3 | 20.9 | 0.00 | 0.00 | 0.00 | 84 | 1006.5 |
| 20260506035506 | 24 | 159 | 11.3 | 22.5 | 0.00 | 0.00 | 0.00 | 84 | 1006.5 |
| 20260506035405 | 24 | 159 | 12.9 | 22.5 | 0.00 | 0.00 | 0.00 | 84 | 1006.5 |
| 20260506035306 | 24 | 159 | 12.9 | 22.5 | 0.00 | 0.00 | 0.00 | 84 | 1006.4 |
| 20260506035206 | 24 | 158 | 11.3 | 22.5 | 0.00 | 0.00 | 0.00 | 84 | 1006.5 |
| 20260506035105 | 24 | 158 | 11.3 | 22.5 | 0.00 | 0.00 | 0.00 | 84 | 1006.5 |
| 20260506035006 | 24 | 157 | 11.3 | 22.5 | 0.00 | 0.00 | 0.00 | 84 | 1006.5 |
| 20260506034905 | 24 | 157 | 11.3 | 22.5 | 0.00 | 0.00 | 0.00 | 84 | 1006.4 |
| 20260506034806 | 24 | 155 | 11.3 | 22.5 | 0.00 | 0.00 | 0.00 | 83 | 1006.5 |
| 20260506034606 | 24 | 156 | 11.3 | 22.5 | 0.00 | 0.00 | 0.00 | 83 | 1006.4 |
| 20260506034405 | 24 | 154 | 9.7 | 19.3 | 0.00 | 0.00 | 0.00 | 83 | 1006.4 |
| 20260506034306 | 24 | 154 | 9.7 | 19.3 | 0.00 | 0.00 | 0.00 | 83 | 1006.4 |
| 20260506034206 | 24 | 154 | 9.7 | 19.3 | 0.00 | 0.00 | 0.00 | 83 | 1006.4 |
| 20260506034105 | 24 | 153 | 9.7 | 19.3 | 0.00 | 0.00 | 0.00 | 83 | 1006.4 |
| 20260506034006 | 24 | 153 | 9.7 | 19.3 | 0.00 | 0.00 | 0.00 | 83 | 1006.4 |
| 20260506033906 | 24 | 153 | 9.7 | 19.3 | 0.00 | 0.00 | 0.00 | 83 | 1006.4 |
| 20260506033806 | 24 | 154 | 9.7 | 19.3 | 0.00 | 0.00 | 0.00 | 82 | 1006.5 |
| 20260506033707 | 24 | 154 | 8.0 | 17.7 | 0.00 | 0.00 | 0.00 | 82 | 1006.4 |
| 20260506033605 | 24 | 153 | 9.7 | 17.7 | 0.00 | 0.00 | 0.00 | 82 | 1006.3 |
| 20260506033506 | 24 | 155 | 9.7 | 17.7 | 0.00 | 0.00 | 0.00 | 82 | 1006.3 |
| 20260506033406 | 25 | 157 | 9.7 | 17.7 | 0.00 | 0.00 | 0.00 | 82 | 1006.3 |
| 20260506033306 | 25 | 157 | 9.7 | 17.7 | 0.00 | 0.00 | 0.00 | 82 | 1006.2 |
| 20260506033206 | 25 | 160 | 9.7 | 19.3 | 0.00 | 0.00 | 0.00 | 81 | 1006.2 |
| 20260506033105 | 25 | 160 | 11.3 | 19.3 | 0.00 | 0.00 | 0.00 | 81 | 1006.3 |
| 20260506033006 | 25 | 162 | 11.3 | 19.3 | 0.00 | 0.00 | 0.00 | 81 | 1006.3 |
| 20260506032705 | 25 | 167 | 11.3 | 19.3 | 0.00 | 0.00 | 0.00 | 81 | 1006.3 |
| 20260506032606 | 25 | 167 | 11.3 | 19.3 | 0.00 | 0.00 | 0.00 | 81 | 1006.3 |
| 20260506032506 | 25 | 167 | 11.3 | 19.3 | 0.00 | 0.00 | 0.00 | 81 | 1006.3 |
| 20260506032406 | 25 | 168 | 11.3 | 19.3 | 0.00 | 0.00 | 0.00 | 82 | 1006.3 |
| 20260506032307 | 25 | 168 | 11.3 | 19.3 | 0.00 | 0.00 | 0.00 | 82 | 1006.3 |
| 20260506032206 | 25 | 168 | 11.3 | 16.1 | 0.00 | 0.00 | 0.00 | 82 | 1006.3 |
| 20260506032105 | 25 | 169 | 11.3 | 17.7 | 0.00 | 0.00 | 0.00 | 82 | 1006.3 |
| 20260506032006 | 25 | 170 | 11.3 | 17.7 | 0.00 | 0.00 | 0.00 | 82 | 1006.3 |
| 20260506031905 | 25 | 168 | 11.3 | 17.7 | 0.00 | 0.00 | 0.00 | 82 | 1006.2 |
| 20260506031806 | 25 | 167 | 9.7 | 17.7 | 0.00 | 0.00 | 0.00 | 82 | 1006.2 |
| 20260506031705 | 25 | 167 | 9.7 | 17.7 | 0.00 | 0.00 | 0.00 | 82 | 1006.1 |
| 20260506031606 | 25 | 167 | 9.7 | 17.7 | 0.00 | 0.00 | 0.00 | 82 | 1006.1 |
| 20260506031505 | 25 | 167 | 9.7 | 17.7 | 0.00 | 0.00 | 0.00 | 82 | 1006.2 |
| 20260506031406 | 24 | 166 | 8.0 | 17.7 | 0.00 | 0.00 | 0.00 | 82 | 1006.2 |
| 20260506031206 | 24 | 165 | 8.0 | 17.7 | 0.00 | 0.00 | 0.00 | 82 | 1006.2 |
| 20260506031105 | 24 | 163 | 6.4 | 17.7 | 0.00 | 0.00 | 0.00 | 82 | 1006.3 |
| 20260506031006 | 24 | 162 | 6.4 | 17.7 | 0.00 | 0.00 | 0.00 | 82 | 1006.2 |
| 20260506030905 | 24 | 162 | 6.4 | 12.9 | 0.00 | 0.00 | 0.00 | 82 | 1006.2 |
| 20260506030805 | 24 | 162 | 6.4 | 12.9 | 0.00 | 0.00 | 0.00 | 82 | 1006.2 |
| 20260506030706 | 24 | 160 | 6.4 | 12.9 | 0.00 | 0.00 | 0.00 | 82 | 1006.2 |
| 20260506030505 | 24 | 158 | 4.8 | 12.9 | 0.00 | 0.00 | 0.00 | 82 | 1006.2 |
| 20260506030407 | 24 | 156 | 4.8 | 12.9 | 0.00 | 0.00 | 0.00 | 82 | 1006.1 |
| 20260506030306 | 24 | 154 | 4.8 | 12.9 | 0.00 | 0.00 | 0.00 | 82 | 1006.0 |
| 20260506030205 | 24 | 153 | 4.8 | 14.5 | 0.00 | 0.00 | 0.00 | 82 | 1006.1 |
| 20260506030105 | 24 | 152 | 6.4 | 14.5 | 0.00 | 0.00 | 0.00 | 82 | 1006.0 |
| 20260506030006 | 24 | 152 | 6.4 | 14.5 | 0.00 | 0.00 | 0.00 | 82 | 1005.9 |
| 20260506025905 | 24 | 151 | 6.4 | 14.5 | 0.00 | 0.00 | 0.00 | 82 | 1005.9 |
| 20260506025806 | 24 | 151 | 6.4 | 14.5 | 0.00 | 0.00 | 0.00 | 82 | 1005.8 |
| 20260506025705 | 24 | 151 | 6.4 | 14.5 | 0.00 | 0.00 | 0.00 | 82 | 1005.8 |
| 20260506025606 | 24 | 153 | 6.4 | 14.5 | 0.00 | 0.00 | 0.00 | 82 | 1005.8 |
| 20260506025505 | 24 | 153 | 6.4 | 14.5 | 0.00 | 0.00 | 0.00 | 82 | 1005.8 |
| 20260506025406 | 24 | 155 | 6.4 | 14.5 | 0.00 | 0.00 | 0.00 | 82 | 1005.7 |
| 20260506025306 | 24 | 157 | 6.4 | 14.5 | 0.00 | 0.00 | 0.00 | 82 | 1005.7 |
| 20260506025206 | 24 | 158 | 6.4 | 14.5 | 0.00 | 0.00 | 0.00 | 81 | 1005.7 |
| 20260506025105 | 25 | 160 | 6.4 | 14.5 | 0.00 | 0.00 | 0.00 | 81 | 1005.7 |
| 20260506025005 | 25 | 161 | 6.4 | 14.5 | 0.00 | 0.00 | 0.00 | 81 | 1005.7 |
| 20260506024906 | 25 | 162 | 6.4 | 14.5 | 0.00 | 0.00 | 0.00 | 81 | 1005.6 |
| 20260506024805 | 25 | 163 | 6.4 | 14.5 | 0.00 | 0.00 | 0.00 | 81 | 1005.7 |
| 20260506024706 | 25 | 163 | 6.4 | 14.5 | 0.00 | 0.00 | 0.00 | 81 | 1005.7 |
| 20260506024605 | 25 | 163 | 6.4 | 14.5 | 0.00 | 0.00 | 0.00 | 81 | 1005.6 |
| 20260506024506 | 25 | 163 | 6.4 | 14.5 | 0.00 | 0.00 | 0.00 | 81 | 1005.6 |
| 20260506024406 | 25 | 163 | 6.4 | 14.5 | 0.00 | 0.00 | 0.00 | 81 | 1005.6 |
| 20260506024305 | 25 | 163 | 6.4 | 12.9 | 0.00 | 0.00 | 0.00 | 81 | 1005.6 |
| 20260506024206 | 25 | 162 | 6.4 | 12.9 | 0.00 | 0.00 | 0.00 | 81 | 1005.6 |
| 20260506024106 | 25 | 161 | 6.4 | 12.9 | 0.00 | 0.00 | 0.00 | 81 | 1005.6 |
| 20260506024005 | 25 | 161 | 6.4 | 12.9 | 0.00 | 0.00 | 0.00 | 81 | 1005.6 |
| 20260506023806 | 25 | 162 | 6.4 | 12.9 | 0.00 | 0.00 | 0.00 | 81 | 1005.5 |
| 20260506023706 | 25 | 162 | 6.4 | 12.9 | 0.00 | 0.00 | 0.00 | 81 | 1005.5 |
| 20260506023606 | 25 | 162 | 6.4 | 12.9 | 0.00 | 0.00 | 0.00 | 81 | 1005.5 |
| 20260506023505 | 25 | 162 | 6.4 | 12.9 | 0.00 | 0.00 | 0.00 | 81 | 1005.5 |
| 20260506023406 | 25 | 162 | 6.4 | 12.9 | 0.00 | 0.00 | 0.00 | 81 | 1005.5 |
| 20260506023305 | 25 | 161 | 6.4 | 12.9 | 0.00 | 0.00 | 0.00 | 81 | 1005.5 |
| 20260506023206 | 25 | 160 | 6.4 | 11.3 | 0.00 | 0.00 | 0.00 | 81 | 1005.6 |
| 20260506023105 | 25 | 160 | 6.4 | 11.3 | 0.00 | 0.00 | 0.00 | 81 | 1005.5 |
| 20260506022906 | 25 | 158 | 6.4 | 11.3 | 0.00 | 0.00 | 0.00 | 81 | 1005.5 |
| 20260506022805 | 25 | 158 | 6.4 | 11.3 | 0.00 | 0.00 | 0.00 | 81 | 1005.5 |
| 20260506022705 | 25 | 158 | 6.4 | 11.3 | 0.00 | 0.00 | 0.00 | 81 | 1005.5 |
| 20260506022607 | 25 | 157 | 6.4 | 11.3 | 0.00 | 0.00 | 0.00 | 81 | 1005.4 |
| 20260506022505 | 25 | 156 | 6.4 | 11.3 | 0.00 | 0.00 | 0.00 | 81 | 1005.4 |
| 20260506022406 | 25 | 156 | 6.4 | 11.3 | 0.00 | 0.00 | 0.00 | 81 | 1005.4 |
| 20260506022306 | 25 | 157 | 6.4 | 11.3 | 0.00 | 0.00 | 0.00 | 81 | 1005.4 |
| 20260506022106 | 25 | 158 | 6.4 | 11.3 | 0.00 | 0.00 | 0.00 | 81 | 1005.4 |
| 20260506022005 | 25 | 159 | 6.4 | 11.3 | 0.00 | 0.00 | 0.00 | 81 | 1005.4 |
| 20260506021906 | 25 | 158 | 4.8 | 11.3 | 0.00 | 0.00 | 0.00 | 81 | 1005.4 |
| 20260506021806 | 25 | 156 | 4.8 | 11.3 | 0.00 | 0.00 | 0.00 | 81 | 1005.4 |
| 20260506021705 | 25 | 157 | 4.8 | 11.3 | 0.00 | 0.00 | 0.00 | 81 | 1005.3 |
| 20260506021608 | 25 | 157 | 4.8 | 11.3 | 0.00 | 0.00 | 0.00 | 81 | 1005.4 |
| 20260506021405 | 25 | 157 | 6.4 | 11.3 | 0.00 | 0.00 | 0.00 | 81 | 1005.3 |
| 20260506021306 | 25 | 156 | 4.8 | 11.3 | 0.00 | 0.00 | 0.00 | 81 | 1005.3 |
| 20260506021205 | 25 | 156 | 4.8 | 11.3 | 0.00 | 0.00 | 0.00 | 81 | 1005.3 |
| 20260506021105 | 25 | 155 | 6.4 | 11.3 | 0.00 | 0.00 | 0.00 | 81 | 1005.3 |
| 20260506021005 | 25 | 154 | 6.4 | 11.3 | 0.00 | 0.00 | 0.00 | 81 | 1005.4 |
| 20260506020906 | 25 | 155 | 4.8 | 11.3 | 0.00 | 0.00 | 0.00 | 80 | 1005.4 |
| 20260506020805 | 25 | 154 | 4.8 | 11.3 | 0.00 | 0.00 | 0.00 | 80 | 1005.4 |
| 20260506020706 | 25 | 153 | 4.8 | 11.3 | 0.00 | 0.00 | 0.00 | 80 | 1005.4 |
| 20260506020605 | 25 | 153 | 4.8 | 11.3 | 0.00 | 0.00 | 0.00 | 80 | 1005.3 |
| 20260506020505 | 25 | 152 | 6.4 | 11.3 | 0.00 | 0.00 | 0.00 | 80 | 1005.3 |
| 20260506020406 | 25 | 153 | 6.4 | 12.9 | 0.00 | 0.00 | 0.00 | 80 | 1005.2 |
| 20260506020105 | 25 | 155 | 6.4 | 12.9 | 0.00 | 0.00 | 0.00 | 80 | 1005.2 |
| 20260506015906 | 25 | 156 | 6.4 | 14.5 | 0.00 | 0.00 | 0.00 | 80 | 1005.2 |
| 20260506015805 | 25 | 156 | 6.4 | 14.5 | 0.00 | 0.00 | 0.00 | 80 | 1005.2 |
| 20260506015605 | 25 | 158 | 6.4 | 14.5 | 0.00 | 0.00 | 0.00 | 80 | 1005.1 |
| 20260506015505 | 25 | 159 | 6.4 | 14.5 | 0.00 | 0.00 | 0.00 | 80 | 1005.1 |
| 20260506015406 | 25 | 159 | 6.4 | 14.5 | 0.00 | 0.00 | 0.00 | 80 | 1005.0 |
| 20260506015306 | 25 | 159 | 8.0 | 14.5 | 0.00 | 0.00 | 0.00 | 79 | 1005.0 |
| 20260506015206 | 25 | 160 | 8.0 | 14.5 | 0.00 | 0.00 | 0.00 | 79 | 1005.0 |
| 20260506015105 | 25 | 160 | 8.0 | 14.5 | 0.00 | 0.00 | 0.00 | 79 | 1005.0 |
| 20260506015006 | 25 | 160 | 8.0 | 14.5 | 0.00 | 0.00 | 0.00 | 79 | 1005.1 |
| 20260506014805 | 25 | 159 | 8.0 | 14.5 | 0.00 | 0.00 | 0.00 | 79 | 1005.0 |
| 20260506014705 | 25 | 158 | 8.0 | 14.5 | 0.00 | 0.00 | 0.00 | 79 | 1004.9 |
| 20260506014505 | 25 | 156 | 8.0 | 14.5 | 0.00 | 0.00 | 0.00 | 79 | 1004.9 |
| 20260506014405 | 25 | 155 | 8.0 | 14.5 | 0.00 | 0.00 | 0.00 | 79 | 1004.9 |
| 20260506014305 | 25 | 154 | 8.0 | 14.5 | 0.00 | 0.00 | 0.00 | 79 | 1004.9 |
| 20260506014206 | 25 | 152 | 6.4 | 14.5 | 0.00 | 0.00 | 0.00 | 79 | 1004.8 |
| 20260506014105 | 25 | 151 | 6.4 | 14.5 | 0.00 | 0.00 | 0.00 | 79 | 1004.8 |
| 20260506014006 | 25 | 152 | 6.4 | 14.5 | 0.00 | 0.00 | 0.00 | 79 | 1004.8 |
| 20260506013805 | 25 | 151 | 6.4 | 14.5 | 0.00 | 0.00 | 0.00 | 79 | 1004.8 |
| 20260506013706 | 25 | 150 | 6.4 | 14.5 | 0.00 | 0.00 | 0.00 | 79 | 1004.8 |
| 20260506013606 | 25 | 150 | 6.4 | 14.5 | 0.00 | 0.00 | 0.00 | 79 | 1004.7 |
| 20260506013506 | 25 | 150 | 6.4 | 12.9 | 0.00 | 0.00 | 0.00 | 79 | 1004.7 |
| 20260506013405 | 25 | 150 | 6.4 | 12.9 | 0.00 | 0.00 | 0.00 | 79 | 1004.7 |
| 20260506013305 | 25 | 149 | 6.4 | 12.9 | 0.00 | 0.00 | 0.00 | 78 | 1004.8 |
| 20260506013206 | 25 | 149 | 6.4 | 12.9 | 0.00 | 0.00 | 0.00 | 78 | 1004.8 |
| 20260506013105 | 25 | 149 | 6.4 | 12.9 | 0.00 | 0.00 | 0.00 | 78 | 1004.7 |
| 20260506013006 | 25 | 147 | 6.4 | 12.9 | 0.00 | 0.00 | 0.00 | 78 | 1004.7 |
| 20260506012806 | 25 | 147 | 6.4 | 14.5 | 0.00 | 0.00 | 0.00 | 78 | 1004.7 |
| 20260506012605 | 26 | 147 | 6.4 | 14.5 | 0.00 | 0.00 | 0.00 | 78 | 1004.7 |
| 20260506012506 | 26 | 147 | 6.4 | 14.5 | 0.00 | 0.00 | 0.00 | 78 | 1004.7 |
| 20260506012405 | 26 | 147 | 6.4 | 14.5 | 0.00 | 0.00 | 0.00 | 78 | 1004.7 |
| 20260506012308 | 26 | 148 | 6.4 | 14.5 | 0.00 | 0.00 | 0.00 | 78 | 1004.6 |
| 20260506012205 | 26 | 149 | 6.4 | 14.5 | 0.00 | 0.00 | 0.00 | 77 | 1004.6 |
| 20260506012105 | 26 | 149 | 6.4 | 14.5 | 0.00 | 0.00 | 0.00 | 77 | 1004.6 |
| 20260506012005 | 26 | 149 | 6.4 | 14.5 | 0.00 | 0.00 | 0.00 | 77 | 1004.6 |
| 20260506011906 | 26 | 149 | 6.4 | 14.5 | 0.00 | 0.00 | 0.00 | 77 | 1004.6 |
| 20260506011805 | 26 | 150 | 6.4 | 12.9 | 0.00 | 0.00 | 0.00 | 77 | 1004.7 |
| 20260506011706 | 26 | 149 | 4.8 | 12.9 | 0.00 | 0.00 | 0.00 | 77 | 1004.7 |
| 20260506011605 | 26 | 149 | 4.8 | 11.3 | 0.00 | 0.00 | 0.00 | 77 | 1004.7 |
| 20260506011505 | 26 | 149 | 4.8 | 11.3 | 0.00 | 0.00 | 0.00 | 77 | 1004.7 |
| 20260506011405 | 26 | 149 | 4.8 | 11.3 | 0.00 | 0.00 | 0.00 | 77 | 1004.8 |
| 20260506011306 | 26 | 149 | 4.8 | 11.3 | 0.00 | 0.00 | 0.00 | 76 | 1004.7 |
| 20260506011106 | 26 | 146 | 4.8 | 16.1 | 0.00 | 0.00 | 0.00 | 76 | 1004.8 |
| 20260506011005 | 26 | 147 | 4.8 | 16.1 | 0.00 | 0.00 | 0.00 | 76 | 1004.7 |
| 20260506010806 | 26 | 146 | 6.4 | 16.1 | 0.00 | 0.00 | 0.00 | 75 | 1004.8 |
| 20260506010505 | 26 | 146 | 6.4 | 16.1 | 0.00 | 0.00 | 0.00 | 75 | 1004.6 |
| 20260506010405 | 26 | 145 | 8.0 | 16.1 | 0.00 | 0.00 | 0.00 | 75 | 1004.7 |
| 20260506010306 | 26 | 146 | 8.0 | 16.1 | 0.00 | 0.00 | 0.00 | 74 | 1004.6 |
| 20260506010205 | 26 | 146 | 8.0 | 16.1 | 0.00 | 0.00 | 0.00 | 74 | 1004.6 |
| 20260506010106 | 26 | 147 | 8.0 | 14.5 | 0.00 | 0.00 | 0.00 | 74 | 1004.6 |
| 20260506010006 | 26 | 148 | 9.7 | 19.3 | 0.00 | 0.00 | 0.00 | 74 | 1004.5 |
| 20260506005906 | 26 | 147 | 9.7 | 19.3 | 0.00 | 0.00 | 0.00 | 74 | 1004.5 |
| 20260506005805 | 26 | 149 | 9.7 | 19.3 | 0.00 | 0.00 | 0.00 | 74 | 1004.5 |
| 20260506005706 | 26 | 150 | 9.7 | 19.3 | 0.00 | 0.00 | 0.00 | 73 | 1004.5 |
| 20260506005406 | 27 | 153 | 9.7 | 19.3 | 0.00 | 0.00 | 0.00 | 73 | 1004.5 |
| 20260506005306 | 27 | 153 | 9.7 | 19.3 | 0.00 | 0.00 | 0.00 | 73 | 1004.5 |
| 20260506005205 | 27 | 155 | 9.7 | 19.3 | 0.00 | 0.00 | 0.00 | 73 | 1004.5 |
| 20260506005105 | 27 | 156 | 9.7 | 19.3 | 0.00 | 0.00 | 0.00 | 71 | 1004.4 |
| 20260506005006 | 27 | 155 | 9.7 | 19.3 | 0.00 | 0.00 | 0.00 | 71 | 1004.5 |
| 20260506004905 | 27 | 157 | 9.7 | 19.3 | 0.00 | 0.00 | 0.00 | 71 | 1004.4 |
| 20260506004806 | 27 | 157 | 9.7 | 19.3 | 0.00 | 0.00 | 0.00 | 71 | 1004.4 |
| 20260506004705 | 27 | 157 | 11.3 | 19.3 | 0.00 | 0.00 | 0.00 | 71 | 1004.4 |
| 20260506004606 | 27 | 156 | 11.3 | 19.3 | 0.00 | 0.00 | 0.00 | 71 | 1004.4 |
| 20260506004405 | 27 | 156 | 11.3 | 19.3 | 0.00 | 0.00 | 0.00 | 70 | 1004.4 |
| 20260506004306 | 27 | 157 | 11.3 | 19.3 | 0.00 | 0.00 | 0.00 | 70 | 1004.4 |
| 20260506004205 | 27 | 157 | 11.3 | 19.3 | 0.00 | 0.00 | 0.00 | 70 | 1004.5 |
| 20260506004105 | 27 | 157 | 11.3 | 25.7 | 0.00 | 0.00 | 0.00 | 70 | 1004.4 |
| 20260506003905 | 27 | 157 | 12.9 | 25.7 | 0.00 | 0.00 | 0.00 | 70 | 1004.4 |
| 20260506003806 | 27 | 157 | 12.9 | 25.7 | 0.00 | 0.00 | 0.00 | 69 | 1004.5 |
| 20260506003605 | 27 | 157 | 12.9 | 25.7 | 0.00 | 0.00 | 0.00 | 69 | 1004.4 |
| 20260506003505 | 27 | 158 | 12.9 | 25.7 | 0.00 | 0.00 | 0.00 | 69 | 1004.4 |
| 20260506003306 | 27 | 160 | 12.9 | 25.7 | 0.00 | 0.00 | 0.00 | 68 | 1004.5 |
| 20260506003206 | 27 | 160 | 12.9 | 25.7 | 0.00 | 0.00 | 0.00 | 68 | 1004.5 |
| 20260506003006 | 27 | 160 | 12.9 | 22.5 | 0.00 | 0.00 | 0.00 | 68 | 1004.5 |
| 20260506002905 | 27 | 159 | 12.9 | 22.5 | 0.00 | 0.00 | 0.00 | 68 | 1004.5 |
| 20260506002806 | 27 | 159 | 12.9 | 22.5 | 0.00 | 0.00 | 0.00 | 68 | 1004.5 |
| 20260506002605 | 27 | 160 | 14.5 | 22.5 | 0.00 | 0.00 | 0.00 | 68 | 1004.5 |
| 20260506002505 | 27 | 161 | 14.5 | 22.5 | 0.00 | 0.00 | 0.00 | 68 | 1004.5 |
| 20260506002405 | 28 | 160 | 14.5 | 22.5 | 0.00 | 0.00 | 0.00 | 68 | 1004.5 |
| 20260506002205 | 28 | 157 | 12.9 | 22.5 | 0.00 | 0.00 | 0.00 | 68 | 1004.6 |
| 20260506002105 | 28 | 158 | 12.9 | 22.5 | 0.00 | 0.00 | 0.00 | 68 | 1004.5 |
| 20260506001905 | 28 | 157 | 14.5 | 25.7 | 0.00 | 0.00 | 0.00 | 68 | 1004.5 |
| 20260506001806 | 28 | 157 | 14.5 | 25.7 | 0.00 | 0.00 | 0.00 | 68 | 1004.5 |
| 20260506001705 | 28 | 157 | 14.5 | 25.7 | 0.00 | 0.00 | 0.00 | 68 | 1004.5 |
| 20260506001505 | 28 | 155 | 14.5 | 25.7 | 0.00 | 0.00 | 0.00 | 68 | 1004.5 |
| 20260506001405 | 28 | 155 | 14.5 | 25.7 | 0.00 | 0.00 | 0.00 | 68 | 1004.5 |
| 20260506001305 | 28 | 155 | 14.5 | 25.7 | 0.00 | 0.00 | 0.00 | 68 | 1004.5 |
| 20260506001206 | 28 | 158 | 14.5 | 25.7 | 0.00 | 0.00 | 0.00 | 68 | 1004.5 |
| 20260506001105 | 28 | 158 | 14.5 | 25.7 | 0.00 | 0.00 | 0.00 | 67 | 1004.5 |
| 20260506001006 | 28 | 159 | 14.5 | 25.7 | 0.00 | 0.00 | 0.00 | 67 | 1004.5 |
| 20260506000905 | 28 | 159 | 14.5 | 25.7 | 0.00 | 0.00 | 0.00 | 67 | 1004.5 |
| 20260506000806 | 28 | 159 | 14.5 | 24.1 | 0.00 | 0.00 | 0.00 | 67 | 1004.5 |
| 20260506000705 | 28 | 160 | 14.5 | 24.1 | 0.00 | 0.00 | 0.00 | 67 | 1004.5 |
| 20260506000606 | 28 | 160 | 14.5 | 24.1 | 0.00 | 0.00 | 0.00 | 67 | 1004.6 |
| 20260506000505 | 28 | 158 | 12.9 | 22.5 | 0.00 | 0.00 | 0.00 | 67 | 1004.6 |
| 20260506000405 | 28 | 159 | 12.9 | 22.5 | 0.00 | 0.00 | 0.00 | 67 | 1004.6 |
| 20260506000305 | 28 | 159 | 12.9 | 22.5 | 0.00 | 0.00 | 0.00 | 67 | 1004.6 |
| 20260506000105 | 28 | 155 | 12.9 | 20.9 | 0.00 | 0.00 | 0.00 | 67 | 1004.5 |
| 20260506000005 | 28 | 154 | 11.3 | 20.9 | 0.00 | 0.00 | 0.00 | 68 | 1004.6 |
| 20260505235905 | 28 | 155 | 11.3 | 19.3 | 0.00 | 0.00 | 0.00 | 68 | 1004.5 |
| 20260505235806 | 28 | 156 | 11.3 | 19.3 | 0.00 | 0.00 | 0.00 | 68 | 1004.5 |
| 20260505235705 | 28 | 155 | 11.3 | 19.3 | 0.00 | 0.00 | 0.00 | 68 | 1004.5 |
| 20260505235605 | 28 | 154 | 11.3 | 19.3 | 0.00 | 0.00 | 0.00 | 68 | 1004.5 |
| 20260505235505 | 28 | 154 | 11.3 | 19.3 | 0.00 | 0.00 | 0.00 | 68 | 1004.5 |
| 20260505235406 | 28 | 152 | 11.3 | 19.3 | 0.00 | 0.00 | 0.00 | 68 | 1004.5 |
| 20260505235305 | 28 | 152 | 11.3 | 19.3 | 0.00 | 0.00 | 0.00 | 68 | 1004.5 |
| 20260505235206 | 28 | 153 | 11.3 | 19.3 | 0.00 | 0.00 | 0.00 | 68 | 1004.5 |
| 20260505235105 | 28 | 154 | 12.9 | 19.3 | 0.00 | 0.00 | 0.00 | 68 | 1004.5 |
| 20260505234806 | 28 | 152 | 12.9 | 24.1 | 0.00 | 0.00 | 0.00 | 68 | 1004.6 |
| 20260505234705 | 28 | 152 | 12.9 | 24.1 | 0.00 | 0.00 | 0.00 | 68 | 1004.6 |
| 20260505234605 | 28 | 156 | 12.9 | 24.1 | 0.00 | 0.00 | 0.00 | 68 | 1004.5 |
| 20260505234505 | 28 | 159 | 12.9 | 24.1 | 0.00 | 0.00 | 0.00 | 68 | 1004.5 |
| 20260505234405 | 28 | 160 | 12.9 | 24.1 | 0.00 | 0.00 | 0.00 | 68 | 1004.5 |
| 20260505234305 | 28 | 160 | 12.9 | 24.1 | 0.00 | 0.00 | 0.00 | 68 | 1004.5 |
| 20260505234205 | 28 | 160 | 12.9 | 24.1 | 0.00 | 0.00 | 0.00 | 68 | 1004.5 |
| 20260505234105 | 28 | 160 | 12.9 | 24.1 | 0.00 | 0.00 | 0.00 | 68 | 1004.5 |
| 20260505234005 | 28 | 160 | 12.9 | 20.9 | 0.00 | 0.00 | 0.00 | 68 | 1004.5 |
| 20260505233906 | 28 | 159 | 12.9 | 20.9 | 0.00 | 0.00 | 0.00 | 68 | 1004.5 |
| 20260505233806 | 28 | 159 | 12.9 | 20.9 | 0.00 | 0.00 | 0.00 | 67 | 1004.5 |
| 20260505233705 | 28 | 161 | 11.3 | 20.9 | 0.00 | 0.00 | 0.00 | 67 | 1004.5 |
| 20260505233505 | 28 | 158 | 11.3 | 20.9 | 0.00 | 0.00 | 0.00 | 68 | 1004.5 |
| 20260505233406 | 28 | 157 | 11.3 | 20.9 | 0.00 | 0.00 | 0.00 | 67 | 1004.5 |
| 20260505233305 | 28 | 157 | 11.3 | 20.9 | 0.00 | 0.00 | 0.00 | 68 | 1004.5 |
| 20260505233206 | 28 | 155 | 9.7 | 19.3 | 0.00 | 0.00 | 0.00 | 67 | 1004.5 |
| 20260505233105 | 28 | 155 | 11.3 | 19.3 | 0.00 | 0.00 | 0.00 | 67 | 1004.5 |
| 20260505233006 | 28 | 158 | 11.3 | 19.3 | 0.00 | 0.00 | 0.00 | 67 | 1004.4 |
| 20260505232806 | 28 | 159 | 11.3 | 20.9 | 0.00 | 0.00 | 0.00 | 67 | 1004.5 |
| 20260505232706 | 28 | 158 | 11.3 | 20.9 | 0.00 | 0.00 | 0.00 | 67 | 1004.5 |
| 20260505232606 | 28 | 157 | 11.3 | 20.9 | 0.00 | 0.00 | 0.00 | 67 | 1004.5 |
| 20260505232505 | 28 | 159 | 12.9 | 24.1 | 0.00 | 0.00 | 0.00 | 67 | 1004.5 |
| 20260505232406 | 28 | 159 | 12.9 | 24.1 | 0.00 | 0.00 | 0.00 | 67 | 1004.5 |
| 20260505232305 | 28 | 159 | 12.9 | 25.7 | 0.00 | 0.00 | 0.00 | 67 | 1004.5 |
| 20260505232205 | 28 | 158 | 12.9 | 25.7 | 0.00 | 0.00 | 0.00 | 67 | 1004.5 |
| 20260505232105 | 28 | 158 | 12.9 | 25.7 | 0.00 | 0.00 | 0.00 | 66 | 1004.4 |
| 20260505232005 | 28 | 156 | 12.9 | 25.7 | 0.00 | 0.00 | 0.00 | 66 | 1004.4 |
| 20260505231605 | 28 | 156 | 12.9 | 25.7 | 0.00 | 0.00 | 0.00 | 66 | 1004.3 |
| 20260505231506 | 28 | 156 | 12.9 | 25.7 | 0.00 | 0.00 | 0.00 | 67 | 1004.2 |
| 20260505231405 | 28 | 157 | 11.3 | 25.7 | 0.00 | 0.00 | 0.00 | 67 | 1004.2 |
| 20260505231305 | 28 | 159 | 11.3 | 22.5 | 0.00 | 0.00 | 0.00 | 67 | 1004.2 |
| 20260505231205 | 28 | 162 | 12.9 | 20.9 | 0.00 | 0.00 | 0.00 | 67 | 1004.2 |
| 20260505231105 | 28 | 164 | 12.9 | 20.9 | 0.00 | 0.00 | 0.00 | 67 | 1004.2 |
| 20260505231005 | 28 | 165 | 12.9 | 19.3 | 0.00 | 0.00 | 0.00 | 67 | 1004.2 |
| 20260505230905 | 28 | 166 | 12.9 | 19.3 | 0.00 | 0.00 | 0.00 | 67 | 1004.2 |
| 20260505230805 | 28 | 165 | 12.9 | 20.9 | 0.00 | 0.00 | 0.00 | 67 | 1004.2 |
| 20260505230705 | 28 | 164 | 12.9 | 22.5 | 0.00 | 0.00 | 0.00 | 67 | 1004.2 |
| 20260505230605 | 28 | 163 | 12.9 | 22.5 | 0.00 | 0.00 | 0.00 | 67 | 1004.2 |
| 20260505230505 | 28 | 162 | 14.5 | 22.5 | 0.00 | 0.00 | 0.00 | 68 | 1004.2 |
| 20260505230406 | 28 | 161 | 14.5 | 22.5 | 0.00 | 0.00 | 0.00 | 67 | 1004.2 |
| 20260505230305 | 28 | 158 | 14.5 | 24.1 | 0.00 | 0.00 | 0.00 | 67 | 1004.2 |
| 20260505230006 | 28 | 153 | 12.9 | 24.1 | 0.00 | 0.00 | 0.00 | 67 | 1004.2 |
| 20260505225905 | 28 | 151 | 14.5 | 24.1 | 0.00 | 0.00 | 0.00 | 67 | 1004.1 |
| 20260505225805 | 28 | 150 | 14.5 | 25.7 | 0.00 | 0.00 | 0.00 | 67 | 1004.1 |
| 20260505225705 | 28 | 151 | 12.9 | 25.7 | 0.00 | 0.00 | 0.00 | 67 | 1004.1 |
| 20260505225606 | 28 | 150 | 14.5 | 25.7 | 0.00 | 0.00 | 0.00 | 66 | 1004.1 |
| 20260505225405 | 28 | 147 | 14.5 | 25.7 | 0.00 | 0.00 | 0.00 | 66 | 1004.1 |
| 20260505225306 | 29 | 147 | 14.5 | 25.7 | 0.00 | 0.00 | 0.00 | 66 | 1004.1 |
| 20260505225205 | 29 | 146 | 14.5 | 25.7 | 0.00 | 0.00 | 0.00 | 66 | 1004.1 |
| 20260505225105 | 29 | 146 | 14.5 | 25.7 | 0.00 | 0.00 | 0.00 | 65 | 1004.1 |
| 20260505225005 | 29 | 148 | 14.5 | 25.7 | 0.00 | 0.00 | 0.00 | 65 | 1004.1 |
| 20260505224905 | 29 | 149 | 14.5 | 25.7 | 0.00 | 0.00 | 0.00 | 65 | 1004.2 |
| 20260505224805 | 29 | 151 | 14.5 | 25.7 | 0.00 | 0.00 | 0.00 | 65 | 1004.2 |
| 20260505224705 | 29 | 153 | 14.5 | 25.7 | 0.00 | 0.00 | 0.00 | 65 | 1004.2 |
| 20260505224606 | 29 | 154 | 14.5 | 25.7 | 0.00 | 0.00 | 0.00 | 65 | 1004.2 |
| 20260505224505 | 29 | 156 | 12.9 | 25.7 | 0.00 | 0.00 | 0.00 | 65 | 1004.2 |
| 20260505224407 | 30 | 157 | 12.9 | 22.5 | 0.00 | 0.00 | 0.00 | 65 | 1004.2 |
| 20260505224305 | 30 | 158 | 12.9 | 22.5 | 0.00 | 0.00 | 0.00 | 65 | 1004.2 |
| 20260505224206 | 30 | 161 | 14.5 | 22.5 | 0.00 | 0.00 | 0.00 | 65 | 1004.3 |
| 20260505224105 | 30 | 163 | 14.5 | 22.5 | 0.00 | 0.00 | 0.00 | 65 | 1004.3 |
| 20260505224006 | 30 | 162 | 12.9 | 22.5 | 0.00 | 0.00 | 0.00 | 65 | 1004.3 |
| 20260505223906 | 30 | 161 | 12.9 | 22.5 | 0.00 | 0.00 | 0.00 | 65 | 1004.3 |
| 20260505223805 | 30 | 162 | 12.9 | 20.9 | 0.00 | 0.00 | 0.00 | 65 | 1004.3 |
| 20260505223605 | 30 | 160 | 12.9 | 25.7 | 0.00 | 0.00 | 0.00 | 65 | 1004.3 |
| 20260505223506 | 30 | 157 | 14.5 | 25.7 | 0.00 | 0.00 | 0.00 | 65 | 1004.3 |
| 20260505223405 | 30 | 158 | 14.5 | 25.7 | 0.00 | 0.00 | 0.00 | 65 | 1004.4 |
| 20260505223306 | 30 | 158 | 14.5 | 25.7 | 0.00 | 0.00 | 0.00 | 65 | 1004.3 |
| 20260505223206 | 30 | 157 | 12.9 | 25.7 | 0.00 | 0.00 | 0.00 | 65 | 1004.3 |
| 20260505223105 | 30 | 156 | 12.9 | 25.7 | 0.00 | 0.00 | 0.00 | 65 | 1004.3 |
| 20260505222705 | 30 | 162 | 12.9 | 25.7 | 0.00 | 0.00 | 0.00 | 65 | 1004.2 |
| 20260505222606 | 30 | 163 | 12.9 | 24.1 | 0.00 | 0.00 | 0.00 | 65 | 1004.2 |
| 20260505222505 | 30 | 167 | 12.9 | 24.1 | 0.00 | 0.00 | 0.00 | 64 | 1004.2 |
| 20260505222306 | 30 | 172 | 12.9 | 22.5 | 0.00 | 0.00 | 0.00 | 65 | 1004.1 |
| 20260505222205 | 30 | 174 | 12.9 | 22.5 | 0.00 | 0.00 | 0.00 | 64 | 1004.1 |
| 20260505222105 | 30 | 172 | 12.9 | 22.5 | 0.00 | 0.00 | 0.00 | 64 | 1004.2 |
| 20260505222005 | 30 | 170 | 12.9 | 22.5 | 0.00 | 0.00 | 0.00 | 63 | 1004.2 |
| 20260505221905 | 30 | 168 | 12.9 | 22.5 | 0.00 | 0.00 | 0.00 | 63 | 1004.1 |
| 20260505221805 | 30 | 169 | 12.9 | 22.5 | 0.00 | 0.00 | 0.00 | 63 | 1004.1 |
| 20260505221605 | 30 | 167 | 12.9 | 24.1 | 0.00 | 0.00 | 0.00 | 63 | 1004.1 |
| 20260505221506 | 30 | 166 | 11.3 | 24.1 | 0.00 | 0.00 | 0.00 | 63 | 1004.1 |
| 20260505221405 | 30 | 167 | 12.9 | 24.1 | 0.00 | 0.00 | 0.00 | 64 | 1004.0 |
| 20260505221305 | 30 | 168 | 12.9 | 24.1 | 0.00 | 0.00 | 0.00 | 64 | 1004.0 |
| 20260505221205 | 30 | 167 | 12.9 | 24.1 | 0.00 | 0.00 | 0.00 | 64 | 1004.0 |
| 20260505221105 | 30 | 169 | 12.9 | 24.1 | 0.00 | 0.00 | 0.00 | 64 | 1004.0 |
| 20260505221005 | 30 | 173 | 12.9 | 24.1 | 0.00 | 0.00 | 0.00 | 64 | 1004.0 |
| 20260505220905 | 30 | 177 | 12.9 | 24.1 | 0.00 | 0.00 | 0.00 | 63 | 1004.0 |
| 20260505220805 | 30 | 176 | 12.9 | 24.1 | 0.00 | 0.00 | 0.00 | 63 | 1004.0 |
| 20260505220705 | 30 | 181 | 12.9 | 24.1 | 0.00 | 0.00 | 0.00 | 62 | 1004.0 |
| 20260505220605 | 30 | 183 | 12.9 | 22.5 | 0.00 | 0.00 | 0.00 | 61 | 1004.0 |
| 20260505220506 | 30 | 184 | 12.9 | 22.5 | 0.00 | 0.00 | 0.00 | 60 | 1004.1 |
| 20260505220405 | 30 | 184 | 12.9 | 22.5 | 0.00 | 0.00 | 0.00 | 60 | 1004.1 |
| 20260505220306 | 30 | 184 | 12.9 | 20.9 | 0.00 | 0.00 | 0.00 | 60 | 1004.1 |
| 20260505220105 | 30 | 185 | 12.9 | 22.5 | 0.00 | 0.00 | 0.00 | 60 | 1004.0 |
| 20260505220006 | 30 | 185 | 12.9 | 22.5 | 0.00 | 0.00 | 0.00 | 60 | 1004.1 |
| 20260505215805 | 30 | 186 | 11.3 | 22.5 | 0.00 | 0.00 | 0.00 | 60 | 1004.1 |
| 20260505215605 | 30 | 187 | 11.3 | 22.5 | 0.00 | 0.00 | 0.00 | 60 | 1004.2 |
| 20260505215505 | 30 | 188 | 11.3 | 22.5 | 0.00 | 0.00 | 0.00 | 60 | 1004.2 |
| 20260505215406 | 30 | 190 | 11.3 | 22.5 | 0.00 | 0.00 | 0.00 | 60 | 1004.2 |
| 20260505215306 | 30 | 193 | 11.3 | 22.5 | 0.00 | 0.00 | 0.00 | 60 | 1004.2 |
| 20260505215005 | 30 | 192 | 12.9 | 19.3 | 0.00 | 0.00 | 0.00 | 59 | 1004.2 |
| 20260505214907 | 30 | 190 | 12.9 | 19.3 | 0.00 | 0.00 | 0.00 | 59 | 1004.2 |
| 20260505214806 | 31 | 189 | 12.9 | 19.3 | 0.00 | 0.00 | 0.00 | 59 | 1004.2 |
| 20260505214705 | 31 | 188 | 12.9 | 19.3 | 0.00 | 0.00 | 0.00 | 59 | 1004.3 |
| 20260505214606 | 31 | 188 | 12.9 | 20.9 | 0.00 | 0.00 | 0.00 | 60 | 1004.3 |
| 20260505214505 | 31 | 188 | 12.9 | 20.9 | 0.00 | 0.00 | 0.00 | 60 | 1004.4 |
| 20260505214405 | 31 | 185 | 12.9 | 20.9 | 0.00 | 0.00 | 0.00 | 60 | 1004.4 |
| 20260505214305 | 31 | 183 | 12.9 | 20.9 | 0.00 | 0.00 | 0.00 | 60 | 1004.5 |
| 20260505214205 | 31 | 179 | 12.9 | 20.9 | 0.00 | 0.00 | 0.00 | 60 | 1004.5 |
| 20260505214105 | 31 | 181 | 12.9 | 20.9 | 0.00 | 0.00 | 0.00 | 60 | 1004.5 |
| 20260505214006 | 31 | 177 | 12.9 | 20.9 | 0.00 | 0.00 | 0.00 | 59 | 1004.5 |
| 20260505213905 | 31 | 179 | 11.3 | 20.9 | 0.00 | 0.00 | 0.00 | 59 | 1004.5 |
| 20260505213805 | 31 | 179 | 11.3 | 20.9 | 0.00 | 0.00 | 0.00 | 59 | 1004.5 |
| 20260505213605 | 31 | 174 | 11.3 | 19.3 | 0.00 | 0.00 | 0.00 | 61 | 1004.5 |
| 20260505213505 | 31 | 171 | 11.3 | 19.3 | 0.00 | 0.00 | 0.00 | 60 | 1004.4 |
| 20260505213405 | 31 | 169 | 11.3 | 19.3 | 0.00 | 0.00 | 0.00 | 60 | 1004.5 |
| 20260505213305 | 31 | 169 | 11.3 | 19.3 | 0.00 | 0.00 | 0.00 | 60 | 1004.5 |
| 20260505213205 | 30 | 168 | 11.3 | 19.3 | 0.00 | 0.00 | 0.00 | 60 | 1004.5 |
| 20260505213005 | 30 | 166 | 11.3 | 19.3 | 0.00 | 0.00 | 0.00 | 60 | 1004.5 |
| 20260505212905 | 30 | 165 | 11.3 | 19.3 | 0.00 | 0.00 | 0.00 | 61 | 1004.5 |
| 20260505212805 | 30 | 168 | 11.3 | 19.3 | 0.00 | 0.00 | 0.00 | 60 | 1004.5 |
| 20260505212705 | 30 | 173 | 11.3 | 20.9 | 0.00 | 0.00 | 0.00 | 60 | 1004.5 |
| 20260505212606 | 30 | 176 | 12.9 | 20.9 | 0.00 | 0.00 | 0.00 | 60 | 1004.5 |
| 20260505212406 | 30 | 184 | 12.9 | 20.9 | 0.00 | 0.00 | 0.00 | 60 | 1004.5 |
| 20260505212306 | 30 | 188 | 12.9 | 27.4 | 0.00 | 0.00 | 0.00 | 60 | 1004.5 |
| 20260505212206 | 30 | 191 | 14.5 | 27.4 | 0.00 | 0.00 | 0.00 | 60 | 1004.5 |
| 20260505212105 | 30 | 192 | 14.5 | 27.4 | 0.00 | 0.00 | 0.00 | 60 | 1004.6 |
| 20260505212005 | 30 | 192 | 14.5 | 27.4 | 0.00 | 0.00 | 0.00 | 60 | 1004.6 |
| 20260505211905 | 30 | 187 | 14.5 | 27.4 | 0.00 | 0.00 | 0.00 | 61 | 1004.6 |
| 20260505211805 | 30 | 184 | 16.1 | 27.4 | 0.00 | 0.00 | 0.00 | 60 | 1004.7 |
| 20260505211705 | 30 | 179 | 16.1 | 27.4 | 0.00 | 0.00 | 0.00 | 60 | 1004.7 |
| 20260505211605 | 30 | 177 | 16.1 | 27.4 | 0.00 | 0.00 | 0.00 | 61 | 1004.7 |
| 20260505211405 | 30 | 176 | 14.5 | 27.4 | 0.00 | 0.00 | 0.00 | 59 | 1004.6 |
| 20260505211307 | 30 | 173 | 14.5 | 27.4 | 0.00 | 0.00 | 0.00 | 60 | 1004.7 |
| 20260505211205 | 30 | 172 | 12.9 | 27.4 | 0.00 | 0.00 | 0.00 | 61 | 1004.7 |
| 20260505211105 | 30 | 171 | 14.5 | 27.4 | 0.00 | 0.00 | 0.00 | 61 | 1004.7 |
| 20260505211005 | 30 | 174 | 12.9 | 27.4 | 0.00 | 0.00 | 0.00 | 60 | 1004.7 |
| 20260505210905 | 30 | 178 | 12.9 | 27.4 | 0.00 | 0.00 | 0.00 | 59 | 1004.6 |
| 20260505210805 | 30 | 181 | 11.3 | 27.4 | 0.00 | 0.00 | 0.00 | 59 | 1004.7 |
| 20260505210605 | 31 | 184 | 11.3 | 24.1 | 0.00 | 0.00 | 0.00 | 59 | 1004.8 |
| 20260505210305 | 31 | 179 | 12.9 | 24.1 | 0.00 | 0.00 | 0.00 | 61 | 1004.8 |
| 20260505210205 | 31 | 178 | 12.9 | 25.7 | 0.00 | 0.00 | 0.00 | 60 | 1004.8 |
| 20260505210106 | 31 | 179 | 12.9 | 25.7 | 0.00 | 0.00 | 0.00 | 61 | 1004.8 |
| 20260505210005 | 30 | 178 | 12.9 | 25.7 | 0.00 | 0.00 | 0.00 | 61 | 1004.8 |
| 20260505205905 | 30 | 176 | 14.5 | 25.7 | 0.00 | 0.00 | 0.00 | 61 | 1004.8 |
| 20260505205805 | 30 | 175 | 14.5 | 25.7 | 0.00 | 0.00 | 0.00 | 61 | 1004.8 |
| 20260505205705 | 30 | 173 | 14.5 | 25.7 | 0.00 | 0.00 | 0.00 | 61 | 1004.8 |
| 20260505205605 | 30 | 171 | 16.1 | 25.7 | 0.00 | 0.00 | 0.00 | 61 | 1004.8 |
| 20260505205505 | 30 | 171 | 16.1 | 25.7 | 0.00 | 0.00 | 0.00 | 61 | 1004.8 |
| 20260505205405 | 30 | 171 | 16.1 | 25.7 | 0.00 | 0.00 | 0.00 | 60 | 1004.9 |
| 20260505205205 | 30 | 176 | 14.5 | 25.7 | 0.00 | 0.00 | 0.00 | 60 | 1004.9 |
| 20260505205104 | 30 | 175 | 14.5 | 24.1 | 0.00 | 0.00 | 0.00 | 59 | 1004.9 |
| 20260505205005 | 30 | 177 | 16.1 | 30.6 | 0.00 | 0.00 | 0.00 | 59 | 1004.9 |
| 20260505204905 | 30 | 179 | 14.5 | 30.6 | 0.00 | 0.00 | 0.00 | 59 | 1004.9 |
| 20260505204805 | 30 | 181 | 14.5 | 30.6 | 0.00 | 0.00 | 0.00 | 59 | 1004.8 |
| 20260505204705 | 30 | 184 | 14.5 | 30.6 | 0.00 | 0.00 | 0.00 | 59 | 1004.8 |
| 20260505204605 | 30 | 189 | 14.5 | 30.6 | 0.00 | 0.00 | 0.00 | 59 | 1004.9 |
| 20260505204505 | 31 | 193 | 14.5 | 30.6 | 0.00 | 0.00 | 0.00 | 60 | 1004.9 |
| 20260505204305 | 31 | 198 | 14.5 | 30.6 | 0.00 | 0.00 | 0.00 | 60 | 1004.9 |
| 20260505204205 | 31 | 198 | 16.1 | 30.6 | 0.00 | 0.00 | 0.00 | 60 | 1005.0 |
| 20260505204105 | 31 | 199 | 16.1 | 30.6 | 0.00 | 0.00 | 0.00 | 60 | 1005.0 |
| 20260505204005 | 30 | 194 | 16.1 | 30.6 | 0.00 | 0.00 | 0.00 | 59 | 1004.9 |
| 20260505203805 | 30 | 193 | 16.1 | 30.6 | 0.00 | 0.00 | 0.00 | 59 | 1005.0 |
| 20260505203704 | 30 | 193 | 16.1 | 30.6 | 0.00 | 0.00 | 0.00 | 59 | 1005.0 |
| 20260505203505 | 30 | 187 | 16.1 | 30.6 | 0.00 | 0.00 | 0.00 | 60 | 1005.0 |
| 20260505203405 | 30 | 186 | 16.1 | 30.6 | 0.00 | 0.00 | 0.00 | 60 | 1005.0 |
| 20260505203305 | 30 | 186 | 16.1 | 30.6 | 0.00 | 0.00 | 0.00 | 60 | 1005.0 |
| 20260505203206 | 30 | 183 | 16.1 | 30.6 | 0.00 | 0.00 | 0.00 | 60 | 1004.9 |
| 20260505203105 | 30 | 182 | 16.1 | 30.6 | 0.00 | 0.00 | 0.00 | 60 | 1004.9 |
| 20260505203006 | 30 | 186 | 16.1 | 25.7 | 0.00 | 0.00 | 0.00 | 60 | 1005.0 |
| 20260505202904 | 30 | 186 | 16.1 | 25.7 | 0.00 | 0.00 | 0.00 | 59 | 1005.0 |
| 20260505202805 | 30 | 185 | 14.5 | 25.7 | 0.00 | 0.00 | 0.00 | 59 | 1005.1 |
| 20260505202705 | 31 | 183 | 14.5 | 25.7 | 0.00 | 0.00 | 0.00 | 59 | 1005.0 |
| 20260505202605 | 31 | 183 | 14.5 | 25.7 | 0.00 | 0.00 | 0.00 | 59 | 1005.1 |
| 20260505202505 | 31 | 184 | 14.5 | 25.7 | 0.00 | 0.00 | 0.00 | 59 | 1005.1 |
| 20260505202405 | 31 | 181 | 14.5 | 25.7 | 0.00 | 0.00 | 0.00 | 59 | 1005.1 |
| 20260505202306 | 31 | 177 | 14.5 | 25.7 | 0.00 | 0.00 | 0.00 | 59 | 1005.2 |
| 20260505202206 | 31 | 176 | 14.5 | 25.7 | 0.00 | 0.00 | 0.00 | 59 | 1005.2 |
| 20260505202104 | 31 | 175 | 14.5 | 25.7 | 0.00 | 0.00 | 0.00 | 59 | 1005.2 |
| 20260505201905 | 31 | 174 | 12.9 | 25.7 | 0.00 | 0.00 | 0.00 | 60 | 1005.0 |
| 20260505201805 | 31 | 177 | 12.9 | 25.7 | 0.00 | 0.00 | 0.00 | 60 | 1005.0 |
| 20260505201705 | 31 | 181 | 12.9 | 25.7 | 0.00 | 0.00 | 0.00 | 60 | 1005.0 |
| 20260505201606 | 31 | 179 | 14.5 | 25.7 | 0.00 | 0.00 | 0.00 | 60 | 1005.0 |
| 20260505201505 | 31 | 179 | 14.5 | 25.7 | 0.00 | 0.00 | 0.00 | 59 | 1005.1 |
| 20260505201405 | 31 | 184 | 14.5 | 25.7 | 0.00 | 0.00 | 0.00 | 59 | 1005.1 |
| 20260505201305 | 31 | 186 | 14.5 | 25.7 | 0.00 | 0.00 | 0.00 | 59 | 1005.1 |
| 20260505201205 | 31 | 186 | 14.5 | 25.7 | 0.00 | 0.00 | 0.00 | 60 | 1005.1 |
| 20260505201105 | 31 | 187 | 14.5 | 24.1 | 0.00 | 0.00 | 0.00 | 60 | 1005.1 |
| 20260505201005 | 30 | 188 | 14.5 | 24.1 | 0.00 | 0.00 | 0.00 | 61 | 1005.1 |
| 20260505200905 | 30 | 185 | 14.5 | 24.1 | 0.00 | 0.00 | 0.00 | 61 | 1005.2 |
| 20260505200805 | 30 | 182 | 16.1 | 25.7 | 0.00 | 0.00 | 0.00 | 60 | 1005.2 |
| 20260505200705 | 30 | 178 | 16.1 | 27.4 | 0.00 | 0.00 | 0.00 | 60 | 1005.3 |
| 20260505200605 | 30 | 178 | 16.1 | 27.4 | 0.00 | 0.00 | 0.00 | 59 | 1005.3 |
| 20260505200505 | 30 | 179 | 16.1 | 27.4 | 0.00 | 0.00 | 0.00 | 61 | 1005.3 |
| 20260505200405 | 30 | 176 | 16.1 | 27.4 | 0.00 | 0.00 | 0.00 | 61 | 1005.4 |
| 20260505200305 | 30 | 176 | 17.7 | 27.4 | 0.00 | 0.00 | 0.00 | 60 | 1005.3 |
| 20260505200105 | 30 | 177 | 17.7 | 27.4 | 0.00 | 0.00 | 0.00 | 61 | 1005.4 |
| 20260505195805 | 30 | 174 | 16.1 | 27.4 | 0.00 | 0.00 | 0.00 | 62 | 1005.4 |
| 20260505195705 | 30 | 174 | 17.7 | 25.7 | 0.00 | 0.00 | 0.00 | 62 | 1005.3 |
| 20260505195605 | 30 | 175 | 17.7 | 25.7 | 0.00 | 0.00 | 0.00 | 62 | 1005.3 |
| 20260505195505 | 30 | 173 | 17.7 | 25.7 | 0.00 | 0.00 | 0.00 | 62 | 1005.4 |
| 20260505195405 | 30 | 174 | 17.7 | 27.4 | 0.00 | 0.00 | 0.00 | 62 | 1005.3 |
| 20260505195305 | 30 | 173 | 16.1 | 27.4 | 0.00 | 0.00 | 0.00 | 62 | 1005.4 |
| 20260505195205 | 30 | 173 | 17.7 | 27.4 | 0.00 | 0.00 | 0.00 | 62 | 1005.3 |
| 20260505195105 | 30 | 171 | 17.7 | 27.4 | 0.00 | 0.00 | 0.00 | 62 | 1005.4 |
| 20260505195005 | 30 | 174 | 16.1 | 27.4 | 0.00 | 0.00 | 0.00 | 61 | 1005.3 |
| 20260505194906 | 30 | 177 | 16.1 | 27.4 | 0.00 | 0.00 | 0.00 | 61 | 1005.3 |
| 20260505194805 | 30 | 184 | 16.1 | 27.4 | 0.00 | 0.00 | 0.00 | 60 | 1005.3 |
| 20260505194705 | 30 | 187 | 14.5 | 27.4 | 0.00 | 0.00 | 0.00 | 62 | 1005.3 |
| 20260505194605 | 30 | 188 | 14.5 | 27.4 | 0.00 | 0.00 | 0.00 | 61 | 1005.3 |
| 20260505194505 | 30 | 189 | 12.9 | 27.4 | 0.00 | 0.00 | 0.00 | 60 | 1005.3 |
| 20260505194405 | 30 | 191 | 12.9 | 25.7 | 0.00 | 0.00 | 0.00 | 62 | 1005.4 |
| 20260505194305 | 30 | 193 | 12.9 | 22.5 | 0.00 | 0.00 | 0.00 | 61 | 1005.4 |
| 20260505194205 | 30 | 196 | 12.9 | 22.5 | 0.00 | 0.00 | 0.00 | 61 | 1005.4 |
| 20260505194104 | 30 | 198 | 12.9 | 22.5 | 0.00 | 0.00 | 0.00 | 61 | 1005.4 |
| 20260505194005 | 30 | 197 | 12.9 | 22.5 | 0.00 | 0.00 | 0.00 | 62 | 1005.5 |
| 20260505193905 | 30 | 195 | 12.9 | 22.5 | 0.00 | 0.00 | 0.00 | 62 | 1005.5 |
| 20260505193805 | 30 | 194 | 12.9 | 22.5 | 0.00 | 0.00 | 0.00 | 62 | 1005.5 |
| 20260505193705 | 30 | 196 | 12.9 | 22.5 | 0.00 | 0.00 | 0.00 | 62 | 1005.5 |
| 20260505193504 | 30 | 197 | 12.9 | 20.9 | 0.00 | 0.00 | 0.00 | 62 | 1005.5 |
| 20260505193405 | 30 | 196 | 12.9 | 20.9 | 0.00 | 0.00 | 0.00 | 62 | 1005.5 |
| 20260505193304 | 30 | 197 | 12.9 | 20.9 | 0.00 | 0.00 | 0.00 | 62 | 1005.6 |
| 20260505193205 | 30 | 199 | 12.9 | 22.5 | 0.00 | 0.00 | 0.00 | 62 | 1005.5 |
| 20260505193105 | 30 | 198 | 12.9 | 24.1 | 0.00 | 0.00 | 0.00 | 63 | 1005.5 |
| 20260505192905 | 30 | 194 | 12.9 | 25.7 | 0.00 | 0.00 | 0.00 | 62 | 1005.5 |
| 20260505192807 | 30 | 194 | 12.9 | 25.7 | 0.00 | 0.00 | 0.00 | 61 | 1005.5 |
| 20260505192605 | 30 | 188 | 12.9 | 25.7 | 0.00 | 0.00 | 0.00 | 63 | 1005.6 |
| 20260505192405 | 30 | 187 | 14.5 | 25.7 | 0.00 | 0.00 | 0.00 | 63 | 1005.6 |
| 20260505192306 | 30 | 185 | 14.5 | 25.7 | 0.00 | 0.00 | 0.00 | 62 | 1005.6 |
| 20260505192106 | 30 | 182 | 12.9 | 25.7 | 0.00 | 0.00 | 0.00 | 63 | 1005.7 |
| 20260505192005 | 30 | 184 | 12.9 | 24.1 | 0.00 | 0.00 | 0.00 | 63 | 1005.7 |
| 20260505191905 | 30 | 186 | 11.3 | 24.1 | 0.00 | 0.00 | 0.00 | 63 | 1005.7 |
| 20260505191805 | 30 | 184 | 11.3 | 24.1 | 0.00 | 0.00 | 0.00 | 62 | 1005.7 |
| 20260505191605 | 30 | 186 | 11.3 | 24.1 | 0.00 | 0.00 | 0.00 | 63 | 1005.8 |
| 20260505191306 | 30 | 177 | 11.3 | 22.5 | 0.00 | 0.00 | 0.00 | 64 | 1005.8 |
| 20260505191105 | 29 | 176 | 12.9 | 22.5 | 0.00 | 0.00 | 0.00 | 64 | 1005.9 |
| 20260505191005 | 29 | 178 | 12.9 | 22.5 | 0.00 | 0.00 | 0.00 | 67 | 1005.9 |
| 20260505190906 | 28 | 178 | 12.9 | 27.4 | 0.00 | 0.00 | 0.00 | 66 | 1005.9 |
| 20260505190805 | 28 | 176 | 12.9 | 29.0 | 0.00 | 0.00 | 0.00 | 65 | 1005.9 |
| 20260505190605 | 28 | 177 | 12.9 | 29.0 | 0.00 | 0.00 | 0.00 | 64 | 1005.9 |
| 20260505190305 | 29 | 191 | 12.9 | 29.0 | 0.00 | 0.00 | 0.00 | 63 | 1005.9 |
| 20260505190104 | 29 | 188 | 14.5 | 29.0 | 0.00 | 0.00 | 0.00 | 64 | 1006.0 |
| 20260505190005 | 29 | 186 | 14.5 | 29.0 | 0.00 | 0.00 | 0.00 | 63 | 1005.8 |
| 20260505185905 | 29 | 186 | 14.5 | 29.0 | 0.00 | 0.00 | 0.00 | 66 | 1006.0 |
| 20260505185805 | 29 | 188 | 16.1 | 22.5 | 0.00 | 0.00 | 0.00 | 65 | 1005.9 |
| 20260505185704 | 28 | 187 | 16.1 | 24.1 | 0.00 | 0.00 | 0.00 | 65 | 1006.0 |
| 20260505185605 | 28 | 187 | 16.1 | 24.1 | 0.00 | 0.00 | 0.00 | 66 | 1006.0 |
| 20260505185504 | 28 | 188 | 16.1 | 27.4 | 0.00 | 0.00 | 0.00 | 66 | 1006.0 |
| 20260505185305 | 28 | 185 | 16.1 | 29.0 | 0.00 | 0.00 | 0.00 | 65 | 1006.0 |
| 20260505185204 | 28 | 187 | 16.1 | 29.0 | 0.00 | 0.00 | 0.00 | 64 | 1006.0 |
| 20260505185105 | 28 | 190 | 16.1 | 29.0 | 0.00 | 0.00 | 0.00 | 65 | 1006.0 |
| 20260505185005 | 28 | 189 | 16.1 | 29.0 | 0.00 | 0.00 | 0.00 | 64 | 1006.0 |
| 20260505184905 | 28 | 192 | 16.1 | 29.0 | 0.00 | 0.00 | 0.00 | 64 | 1006.1 |
| 20260505184705 | 28 | 197 | 16.1 | 29.0 | 0.00 | 0.00 | 0.00 | 65 | 1006.2 |
| 20260505184605 | 28 | 198 | 16.1 | 29.0 | 0.00 | 0.00 | 0.00 | 65 | 1006.2 |
| 20260505184504 | 28 | 198 | 16.1 | 29.0 | 0.00 | 0.00 | 0.00 | 65 | 1006.2 |
| 20260505184405 | 28 | 199 | 16.1 | 25.7 | 0.00 | 0.00 | 0.00 | 65 | 1006.3 |
| 20260505184306 | 28 | 197 | 16.1 | 25.7 | 0.00 | 0.00 | 0.00 | 65 | 1006.2 |
| 20260505184206 | 28 | 197 | 16.1 | 27.4 | 0.00 | 0.00 | 0.00 | 65 | 1006.3 |
| 20260505184105 | 28 | 196 | 16.1 | 27.4 | 0.00 | 0.00 | 0.00 | 65 | 1006.2 |
| 20260505184005 | 28 | 196 | 16.1 | 27.4 | 0.00 | 0.00 | 0.00 | 66 | 1006.2 |
| 20260505183905 | 28 | 193 | 16.1 | 27.4 | 0.00 | 0.00 | 0.00 | 65 | 1006.3 |
| 20260505183805 | 28 | 189 | 17.7 | 27.4 | 0.00 | 0.00 | 0.00 | 65 | 1006.3 |
| 20260505183706 | 28 | 186 | 17.7 | 27.4 | 0.00 | 0.00 | 0.00 | 65 | 1006.3 |
| 20260505183605 | 28 | 189 | 16.1 | 33.8 | 0.00 | 0.00 | 0.00 | 66 | 1006.2 |
| 20260505183505 | 28 | 192 | 16.1 | 33.8 | 0.00 | 0.00 | 0.00 | 66 | 1006.3 |
| 20260505183405 | 28 | 194 | 16.1 | 33.8 | 0.00 | 0.00 | 0.00 | 66 | 1006.2 |
| 20260505183305 | 28 | 196 | 16.1 | 33.8 | 0.00 | 0.00 | 0.00 | 66 | 1006.3 |
| 20260505183206 | 28 | 193 | 16.1 | 33.8 | 0.00 | 0.00 | 0.00 | 66 | 1006.3 |
| 20260505183106 | 28 | 193 | 16.1 | 33.8 | 0.00 | 0.00 | 0.00 | 66 | 1006.3 |
| 20260505183005 | 28 | 194 | 16.1 | 33.8 | 0.00 | 0.00 | 0.00 | 67 | 1006.4 |
| 20260505182905 | 28 | 195 | 14.5 | 33.8 | 0.00 | 0.00 | 0.00 | 66 | 1006.4 |
| 20260505182805 | 28 | 199 | 14.5 | 33.8 | 0.00 | 0.00 | 0.00 | 67 | 1006.5 |
| 20260505182605 | 28 | 195 | 14.5 | 25.7 | 0.00 | 0.00 | 0.00 | 65 | 1006.6 |
| 20260505182504 | 28 | 192 | 14.5 | 25.7 | 0.00 | 0.00 | 0.00 | 66 | 1006.7 |
| 20260505182205 | 28 | 188 | 16.1 | 27.4 | 0.00 | 0.00 | 0.00 | 66 | 1006.6 |
| 20260505182105 | 28 | 187 | 16.1 | 27.4 | 0.00 | 0.00 | 0.00 | 66 | 1006.6 |
| 20260505182005 | 28 | 188 | 16.1 | 27.4 | 0.00 | 0.00 | 0.00 | 66 | 1006.6 |
| 20260505181904 | 28 | 190 | 16.1 | 27.4 | 0.00 | 0.00 | 0.00 | 66 | 1006.6 |
| 20260505181806 | 27 | 190 | 16.1 | 27.4 | 0.00 | 0.00 | 0.00 | 66 | 1006.6 |
| 20260505181704 | 27 | 191 | 16.1 | 27.4 | 0.00 | 0.00 | 0.00 | 66 | 1006.6 |
| 20260505181605 | 27 | 192 | 16.1 | 27.4 | 0.00 | 0.00 | 0.00 | 66 | 1006.6 |
| 20260505181505 | 27 | 194 | 16.1 | 27.4 | 0.00 | 0.00 | 0.00 | 66 | 1006.7 |
| 20260505181304 | 27 | 199 | 16.1 | 27.4 | 0.00 | 0.00 | 0.00 | 68 | 1006.7 |
| 20260505181205 | 27 | 198 | 16.1 | 27.4 | 0.00 | 0.00 | 0.00 | 67 | 1006.7 |
| 20260505181104 | 27 | 201 | 16.1 | 27.4 | 0.00 | 0.00 | 0.00 | 68 | 1006.7 |
| 20260505181005 | 27 | 200 | 16.1 | 32.2 | 0.00 | 0.00 | 0.00 | 67 | 1006.8 |
| 20260505180904 | 27 | 199 | 16.1 | 32.2 | 0.00 | 0.00 | 0.00 | 67 | 1006.8 |
| 20260505180806 | 27 | 198 | 16.1 | 32.2 | 0.00 | 0.00 | 0.00 | 68 | 1006.7 |
| 20260505180604 | 27 | 198 | 16.1 | 32.2 | 0.00 | 0.00 | 0.00 | 68 | 1006.8 |
| 20260505180505 | 27 | 200 | 17.7 | 32.2 | 0.00 | 0.00 | 0.00 | 68 | 1006.7 |
| 20260505180405 | 27 | 201 | 17.7 | 32.2 | 0.00 | 0.00 | 0.00 | 68 | 1006.7 |
| 20260505180305 | 27 | 200 | 19.3 | 32.2 | 0.00 | 0.00 | 0.00 | 67 | 1006.7 |
| 20260505180205 | 27 | 202 | 17.7 | 32.2 | 0.00 | 0.00 | 0.00 | 67 | 1006.7 |
| 20260505180105 | 27 | 202 | 17.7 | 32.2 | 0.00 | 0.00 | 0.00 | 66 | 1006.7 |
| 20260505180005 | 27 | 204 | 16.1 | 32.2 | 0.00 | 0.00 | 0.00 | 68 | 1006.6 |
| 20260505175904 | 27 | 204 | 16.1 | 32.2 | 0.00 | 0.00 | 0.00 | 68 | 1006.6 |
| 20260505175805 | 27 | 203 | 16.1 | 32.2 | 0.00 | 0.00 | 0.00 | 67 | 1006.7 |
| 20260505175705 | 27 | 203 | 16.1 | 32.2 | 0.00 | 0.00 | 0.00 | 67 | 1006.7 |
| 20260505175605 | 27 | 201 | 16.1 | 32.2 | 0.00 | 0.00 | 0.00 | 67 | 1006.7 |
| 20260505175505 | 27 | 197 | 16.1 | 32.2 | 0.00 | 0.00 | 0.00 | 67 | 1006.7 |
| 20260505175405 | 28 | 197 | 14.5 | 32.2 | 0.00 | 0.00 | 0.00 | 67 | 1006.8 |
| 20260505175305 | 28 | 195 | 14.5 | 32.2 | 0.00 | 0.00 | 0.00 | 67 | 1006.8 |
| 20260505175206 | 27 | 192 | 14.5 | 32.2 | 0.00 | 0.00 | 0.00 | 69 | 1006.7 |
| 20260505175104 | 27 | 190 | 14.5 | 32.2 | 0.00 | 0.00 | 0.00 | 70 | 1006.8 |
| 20260505175005 | 27 | 189 | 16.1 | 32.2 | 0.00 | 0.00 | 0.00 | 69 | 1006.8 |
| 20260505174905 | 27 | 191 | 16.1 | 32.2 | 0.00 | 0.00 | 0.00 | 68 | 1006.8 |
| 20260505174805 | 27 | 193 | 16.1 | 32.2 | 0.00 | 0.00 | 0.00 | 67 | 1006.8 |
| 20260505174705 | 27 | 195 | 16.1 | 32.2 | 0.00 | 0.00 | 0.00 | 69 | 1006.9 |
| 20260505174605 | 27 | 195 | 16.1 | 32.2 | 0.00 | 0.00 | 0.00 | 69 | 1006.8 |
| 20260505174504 | 27 | 194 | 16.1 | 32.2 | 0.00 | 0.00 | 0.00 | 68 | 1006.9 |
| 20260505174405 | 27 | 193 | 16.1 | 30.6 | 0.00 | 0.00 | 0.00 | 69 | 1006.9 |
| 20260505174305 | 27 | 193 | 17.7 | 30.6 | 0.00 | 0.00 | 0.00 | 68 | 1006.9 |
| 20260505174205 | 27 | 194 | 17.7 | 30.6 | 0.00 | 0.00 | 0.00 | 68 | 1007.0 |
| 20260505174005 | 27 | 197 | 17.7 | 32.2 | 0.00 | 0.00 | 0.00 | 69 | 1007.0 |
| 20260505173904 | 27 | 197 | 17.7 | 32.2 | 0.00 | 0.00 | 0.00 | 69 | 1007.0 |
| 20260505173705 | 27 | 196 | 17.7 | 32.2 | 0.00 | 0.00 | 0.00 | 69 | 1007.0 |
| 20260505173605 | 27 | 197 | 17.7 | 32.2 | 0.00 | 0.00 | 0.00 | 68 | 1007.0 |
| 20260505173505 | 27 | 198 | 17.7 | 32.2 | 0.00 | 0.00 | 0.00 | 68 | 1007.0 |
| 20260505173405 | 27 | 198 | 17.7 | 32.2 | 0.00 | 0.00 | 0.00 | 68 | 1007.1 |
| 20260505173304 | 27 | 198 | 16.1 | 32.2 | 0.00 | 0.00 | 0.00 | 69 | 1007.1 |
| 20260505173205 | 27 | 200 | 16.1 | 32.2 | 0.00 | 0.00 | 0.00 | 70 | 1007.1 |
| 20260505173104 | 27 | 203 | 16.1 | 32.2 | 0.00 | 0.00 | 0.00 | 69 | 1007.1 |
| 20260505173005 | 27 | 204 | 16.1 | 27.4 | 0.00 | 0.00 | 0.00 | 70 | 1007.1 |
| 20260505172905 | 27 | 203 | 16.1 | 27.4 | 0.00 | 0.00 | 0.00 | 69 | 1007.1 |
| 20260505172805 | 27 | 199 | 17.7 | 30.6 | 0.00 | 0.00 | 0.00 | 70 | 1007.1 |
| 20260505172705 | 27 | 200 | 17.7 | 32.2 | 0.00 | 0.00 | 0.00 | 69 | 1007.1 |
| 20260505172505 | 27 | 202 | 17.7 | 32.2 | 0.00 | 0.00 | 0.00 | 70 | 1007.1 |
| 20260505172405 | 27 | 201 | 17.7 | 32.2 | 0.00 | 0.00 | 0.00 | 70 | 1007.2 |
| 20260505172306 | 27 | 203 | 19.3 | 32.2 | 0.00 | 0.00 | 0.00 | 70 | 1007.2 |
| 20260505172205 | 26 | 203 | 19.3 | 32.2 | 0.00 | 0.00 | 0.00 | 70 | 1007.1 |
| 20260505172105 | 26 | 201 | 19.3 | 32.2 | 0.00 | 0.00 | 0.00 | 70 | 1007.1 |
| 20260505171805 | 27 | 204 | 17.7 | 37.0 | 0.00 | 0.00 | 0.00 | 69 | 1007.0 |
| 20260505171705 | 27 | 203 | 17.7 | 37.0 | 0.00 | 0.00 | 0.00 | 70 | 1007.1 |
| 20260505171605 | 27 | 206 | 17.7 | 37.0 | 0.00 | 0.00 | 0.00 | 69 | 1007.0 |
| 20260505171504 | 27 | 206 | 16.1 | 37.0 | 0.00 | 0.00 | 0.00 | 70 | 1007.0 |
| 20260505171405 | 27 | 208 | 16.1 | 37.0 | 0.00 | 0.00 | 0.00 | 70 | 1007.0 |
| 20260505171304 | 26 | 207 | 16.1 | 37.0 | 0.00 | 0.00 | 0.00 | 70 | 1007.0 |
| 20260505171206 | 26 | 206 | 16.1 | 37.0 | 0.00 | 0.00 | 0.00 | 70 | 1007.0 |
| 20260505171104 | 26 | 206 | 16.1 | 37.0 | 0.00 | 0.00 | 0.00 | 70 | 1006.9 |
| 20260505171005 | 26 | 206 | 17.7 | 30.6 | 0.00 | 0.00 | 0.00 | 70 | 1006.9 |
| 20260505170904 | 26 | 205 | 17.7 | 30.6 | 0.00 | 0.00 | 0.00 | 70 | 1006.9 |
| 20260505170805 | 26 | 205 | 17.7 | 30.6 | 0.00 | 0.00 | 0.00 | 70 | 1006.9 |
| 20260505170704 | 26 | 206 | 17.7 | 30.6 | 0.00 | 0.00 | 0.00 | 70 | 1006.9 |
| 20260505170605 | 26 | 203 | 17.7 | 30.6 | 0.00 | 0.00 | 0.00 | 70 | 1006.9 |
| 20260505170504 | 26 | 202 | 17.7 | 30.6 | 0.00 | 0.00 | 0.00 | 69 | 1006.9 |
| 20260505170405 | 26 | 201 | 17.7 | 30.6 | 0.00 | 0.00 | 0.00 | 69 | 1006.9 |
| 20260505170305 | 26 | 201 | 17.7 | 30.6 | 0.00 | 0.00 | 0.00 | 70 | 1006.9 |
| 20260505170205 | 26 | 200 | 17.7 | 30.6 | 0.00 | 0.00 | 0.00 | 71 | 1006.9 |
| 20260505170105 | 26 | 200 | 17.7 | 30.6 | 0.00 | 0.00 | 0.00 | 71 | 1006.9 |
| 20260505165905 | 26 | 198 | 17.7 | 30.6 | 0.00 | 0.00 | 0.00 | 71 | 1007.0 |
| 20260505165806 | 26 | 198 | 17.7 | 30.6 | 0.00 | 0.00 | 0.00 | 71 | 1007.0 |
| 20260505165704 | 26 | 197 | 17.7 | 30.6 | 0.00 | 0.00 | 0.00 | 71 | 1007.0 |